| time (UTC) | temp C | wind direction | speed KPH | gust KPH | rain 1hr cm | rain 24hr cm | rain mn cm | humidity % | barometer mb |
| 20260506185154 | 12 | 331 | 9.7 | 19.3 | 0.00 | 0.00 | 0.00 | 78 | 1012.1 |
| 20260506185053 | 12 | 0 | 9.7 | 19.3 | 0.00 | 0.00 | 0.00 | 78 | 1012.1 |
| 20260506184954 | 12 | 0 | 9.7 | 19.3 | 0.00 | 0.00 | 0.00 | 78 | 1012.1 |
| 20260506184851 | 12 | 341 | 11.3 | 19.3 | 0.00 | 0.00 | 0.00 | 78 | 1012.0 |
| 20260506184752 | 12 | 348 | 12.9 | 19.3 | 0.00 | 0.00 | 0.00 | 78 | 1012.1 |
| 20260506184653 | 12 | 8 | 9.7 | 17.7 | 0.00 | 0.00 | 0.00 | 78 | 1012.1 |
| 20260506184552 | 12 | 319 | 9.7 | 17.7 | 0.00 | 0.00 | 0.00 | 78 | 1012.1 |
| 20260506184452 | 12 | 344 | 9.7 | 17.7 | 0.00 | 0.00 | 0.00 | 78 | 1012.1 |
| 20260506184351 | 12 | 0 | 9.7 | 17.7 | 0.00 | 0.00 | 0.00 | 78 | 1012.0 |
| 20260506184250 | 12 | 343 | 11.3 | 17.7 | 0.00 | 0.00 | 0.00 | 78 | 1012.1 |
| 20260506184149 | 12 | 0 | 9.7 | 19.3 | 0.00 | 0.00 | 0.00 | 78 | 1012.0 |
| 20260506184048 | 12 | 4 | 8.0 | 19.3 | 0.00 | 0.00 | 0.00 | 78 | 1012.0 |
| 20260506183947 | 12 | 353 | 9.7 | 19.3 | 0.00 | 0.00 | 0.00 | 78 | 1012.0 |
| 20260506183848 | 12 | 321 | 9.7 | 19.3 | 0.00 | 0.00 | 0.00 | 78 | 1012.0 |
| 20260506183745 | 12 | 317 | 11.3 | 19.3 | 0.00 | 0.00 | 0.00 | 78 | 1012.0 |
| 20260506183645 | 12 | 0 | 11.3 | 19.3 | 0.00 | 0.00 | 0.00 | 77 | 1012.0 |
| 20260506183545 | 12 | 326 | 11.3 | 19.3 | 0.00 | 0.00 | 0.00 | 77 | 1012.0 |
| 20260506183444 | 12 | 341 | 12.9 | 19.3 | 0.00 | 0.00 | 0.00 | 77 | 1012.0 |
| 20260506183341 | 12 | 0 | 11.3 | 19.3 | 0.00 | 0.00 | 0.00 | 77 | 1012.0 |
| 20260506183242 | 12 | 333 | 9.7 | 19.3 | 0.00 | 0.00 | 0.00 | 77 | 1012.0 |
| 20260506183141 | 12 | 358 | 9.7 | 19.3 | 0.00 | 0.00 | 0.00 | 77 | 1011.9 |
| 20260506183040 | 12 | 10 | 11.3 | 19.3 | 0.00 | 0.00 | 0.00 | 77 | 1011.9 |
| 20260506182939 | 12 | 28 | 12.9 | 19.3 | 0.00 | 0.00 | 0.00 | 77 | 1011.9 |
| 20260506182839 | 12 | 0 | 14.5 | 22.5 | 0.00 | 0.00 | 0.00 | 77 | 1011.9 |
| 20260506182738 | 12 | 348 | 12.9 | 22.5 | 0.00 | 0.00 | 0.00 | 77 | 1011.9 |
| 20260506182636 | 12 | 336 | 11.3 | 22.5 | 0.00 | 0.00 | 0.00 | 77 | 1011.9 |
| 20260506182536 | 12 | 345 | 11.3 | 22.5 | 0.00 | 0.00 | 0.00 | 77 | 1011.9 |
| 20260506182434 | 12 | 0 | 11.3 | 22.5 | 0.00 | 0.00 | 0.00 | 76 | 1011.9 |
| 20260506182336 | 12 | 0 | 12.9 | 22.5 | 0.00 | 0.00 | 0.00 | 76 | 1011.9 |
| 20260506182234 | 12 | 357 | 11.3 | 22.5 | 0.00 | 0.00 | 0.00 | 76 | 1011.9 |
| 20260506182135 | 12 | 0 | 9.7 | 22.5 | 0.00 | 0.00 | 0.00 | 76 | 1011.8 |
| 20260506182033 | 12 | 353 | 11.3 | 22.5 | 0.00 | 0.00 | 0.00 | 76 | 1011.9 |
| 20260506181935 | 12 | 0 | 11.3 | 22.5 | 0.00 | 0.00 | 0.00 | 76 | 1011.9 |
| 20260506181836 | 12 | 357 | 9.7 | 22.5 | 0.00 | 0.00 | 0.00 | 76 | 1011.8 |
| 20260506181735 | 12 | 0 | 9.7 | 22.5 | 0.00 | 0.00 | 0.00 | 75 | 1011.8 |
| 20260506181637 | 12 | 350 | 11.3 | 22.5 | 0.00 | 0.00 | 0.00 | 75 | 1011.7 |
| 20260506181535 | 12 | 0 | 12.9 | 22.5 | 0.00 | 0.00 | 0.00 | 75 | 1011.8 |
| 20260506181436 | 12 | 343 | 11.3 | 22.5 | 0.00 | 0.00 | 0.00 | 75 | 1011.8 |
| 20260506181334 | 12 | 341 | 14.5 | 22.5 | 0.00 | 0.00 | 0.00 | 75 | 1011.8 |
| 20260506181233 | 12 | 0 | 14.5 | 22.5 | 0.00 | 0.00 | 0.00 | 75 | 1011.6 |
| 20260506181133 | 12 | 0 | 12.9 | 20.9 | 0.00 | 0.00 | 0.00 | 75 | 1011.7 |
| 20260506181034 | 12 | 324 | 12.9 | 19.3 | 0.00 | 0.00 | 0.00 | 75 | 1011.7 |
| 20260506180934 | 12 | 338 | 12.9 | 19.3 | 0.00 | 0.00 | 0.00 | 75 | 1011.7 |
| 20260506180834 | 12 | 0 | 12.9 | 19.3 | 0.00 | 0.00 | 0.00 | 75 | 1011.6 |
| 20260506180734 | 12 | 353 | 11.3 | 19.3 | 0.00 | 0.00 | 0.00 | 74 | 1011.5 |
| 20260506180633 | 12 | 334 | 9.7 | 19.3 | 0.00 | 0.00 | 0.00 | 74 | 1011.6 |
| 20260506180533 | 12 | 0 | 11.3 | 19.3 | 0.00 | 0.00 | 0.00 | 74 | 1011.6 |
| 20260506180433 | 12 | 310 | 11.3 | 19.3 | 0.00 | 0.00 | 0.00 | 74 | 1011.5 |
| 20260506180330 | 12 | 0 | 12.9 | 20.9 | 0.00 | 0.00 | 0.00 | 74 | 1011.5 |
| 20260506180229 | 12 | 357 | 11.3 | 20.9 | 0.00 | 0.00 | 0.00 | 74 | 1011.4 |
| 20260506180129 | 12 | 337 | 11.3 | 20.9 | 0.00 | 0.00 | 0.00 | 74 | 1011.5 |
| 20260506180029 | 12 | 0 | 12.9 | 20.9 | 0.00 | 0.00 | 0.00 | 74 | 1011.5 |
| 20260506175931 | 12 | 0 | 11.3 | 22.5 | 0.00 | 0.00 | 0.00 | 74 | 1011.5 |
| 20260506175832 | 13 | 0 | 11.3 | 22.5 | 0.00 | 0.00 | 0.00 | 74 | 1011.5 |
| 20260506175730 | 13 | 0 | 11.3 | 22.5 | 0.00 | 0.00 | 0.00 | 74 | 1011.4 |
| 20260506175629 | 13 | 0 | 9.7 | 22.5 | 0.00 | 0.00 | 0.00 | 74 | 1011.4 |
| 20260506175529 | 13 | 355 | 11.3 | 22.5 | 0.00 | 0.00 | 0.00 | 74 | 1011.5 |
| 20260506175429 | 13 | 350 | 12.9 | 22.5 | 0.00 | 0.00 | 0.00 | 74 | 1011.5 |
| 20260506175330 | 13 | 334 | 11.3 | 22.5 | 0.00 | 0.00 | 0.00 | 73 | 1011.3 |
| 20260506175230 | 13 | 327 | 12.9 | 22.5 | 0.00 | 0.00 | 0.00 | 73 | 1011.3 |
| 20260506175131 | 13 | 343 | 14.5 | 22.5 | 0.00 | 0.00 | 0.00 | 73 | 1011.3 |
| 20260506175029 | 13 | 330 | 12.9 | 22.5 | 0.00 | 0.00 | 0.00 | 74 | 1011.4 |
| 20260506174928 | 13 | 0 | 11.3 | 29.0 | 0.00 | 0.00 | 0.00 | 74 | 1011.3 |
| 20260506174830 | 13 | 341 | 12.9 | 29.0 | 0.00 | 0.00 | 0.00 | 73 | 1011.4 |
| 20260506174730 | 13 | 0 | 12.9 | 29.0 | 0.00 | 0.00 | 0.00 | 73 | 1011.4 |
| 20260506174628 | 13 | 324 | 11.3 | 29.0 | 0.00 | 0.00 | 0.00 | 73 | 1011.4 |
| 20260506174530 | 13 | 28 | 11.3 | 29.0 | 0.00 | 0.00 | 0.00 | 73 | 1011.3 |
| 20260506174427 | 13 | 357 | 14.5 | 29.0 | 0.00 | 0.00 | 0.00 | 72 | 1011.3 |
| 20260506174328 | 13 | 327 | 14.5 | 29.0 | 0.00 | 0.00 | 0.00 | 72 | 1011.4 |
| 20260506174227 | 13 | 336 | 16.1 | 29.0 | 0.00 | 0.00 | 0.00 | 72 | 1011.4 |
| 20260506174127 | 13 | 334 | 16.1 | 29.0 | 0.00 | 0.00 | 0.00 | 72 | 1011.2 |
| 20260506174026 | 13 | 316 | 16.1 | 29.0 | 0.00 | 0.00 | 0.00 | 72 | 1011.3 |
| 20260506173927 | 13 | 338 | 16.1 | 24.1 | 0.00 | 0.00 | 0.00 | 72 | 1011.2 |
| 20260506173825 | 13 | 358 | 14.5 | 24.1 | 0.00 | 0.00 | 0.00 | 72 | 1011.3 |
| 20260506173725 | 13 | 353 | 12.9 | 22.5 | 0.00 | 0.00 | 0.00 | 72 | 1011.2 |
| 20260506173624 | 13 | 17 | 14.5 | 22.5 | 0.00 | 0.00 | 0.00 | 72 | 1011.2 |
| 20260506173524 | 13 | 0 | 14.5 | 25.7 | 0.00 | 0.00 | 0.00 | 72 | 1011.2 |
| 20260506173424 | 13 | 337 | 14.5 | 25.7 | 0.00 | 0.00 | 0.00 | 72 | 1011.2 |
| 20260506173326 | 13 | 303 | 14.5 | 25.7 | 0.00 | 0.00 | 0.00 | 72 | 1011.3 |
| 20260506173224 | 13 | 344 | 14.5 | 27.4 | 0.00 | 0.00 | 0.00 | 72 | 1011.2 |
| 20260506173124 | 13 | 0 | 11.3 | 27.4 | 0.00 | 0.00 | 0.00 | 72 | 1011.2 |
| 20260506173018 | 13 | 11 | 11.3 | 27.4 | 0.00 | 0.00 | 0.00 | 72 | 1011.2 |
| 20260506172915 | 13 | 348 | 12.9 | 27.4 | 0.00 | 0.00 | 0.00 | 72 | 1011.3 |
| 20260506172815 | 13 | 353 | 12.9 | 27.4 | 0.00 | 0.00 | 0.00 | 71 | 1011.3 |
| 20260506172717 | 13 | 348 | 14.5 | 27.4 | 0.00 | 0.00 | 0.00 | 71 | 1011.1 |
| 20260506172617 | 13 | 338 | 14.5 | 27.4 | 0.00 | 0.00 | 0.00 | 71 | 1011.1 |
| 20260506172513 | 13 | 333 | 14.5 | 27.4 | 0.00 | 0.00 | 0.00 | 71 | 1011.2 |
| 20260506172413 | 13 | 331 | 16.1 | 27.4 | 0.00 | 0.00 | 0.00 | 71 | 1011.1 |
| 20260506172308 | 13 | 333 | 16.1 | 24.1 | 0.00 | 0.00 | 0.00 | 71 | 1011.1 |
| 20260506172207 | 13 | 309 | 14.5 | 24.1 | 0.00 | 0.00 | 0.00 | 71 | 1011.2 |
| 20260506172106 | 13 | 333 | 12.9 | 24.1 | 0.00 | 0.00 | 0.00 | 71 | 1011.2 |
| 20260506172004 | 13 | 348 | 14.5 | 24.1 | 0.00 | 0.00 | 0.00 | 71 | 1011.1 |
| 20260506171903 | 13 | 329 | 14.5 | 24.1 | 0.00 | 0.00 | 0.00 | 71 | 1011.1 |
| 20260506171802 | 13 | 0 | 14.5 | 24.1 | 0.00 | 0.00 | 0.00 | 71 | 1011.2 |
| 20260506171702 | 13 | 351 | 16.1 | 24.1 | 0.00 | 0.00 | 0.00 | 70 | 1011.1 |
| 20260506171559 | 13 | 0 | 16.1 | 24.1 | 0.00 | 0.00 | 0.00 | 70 | 1011.1 |
| 20260506171459 | 13 | 341 | 14.5 | 24.1 | 0.00 | 0.00 | 0.00 | 70 | 1011.2 |
| 20260506171359 | 13 | 1 | 14.5 | 24.1 | 0.00 | 0.00 | 0.00 | 70 | 1011.1 |
| 20260506171257 | 13 | 6 | 14.5 | 25.7 | 0.00 | 0.00 | 0.00 | 70 | 1011.1 |
| 20260506171158 | 13 | 338 | 14.5 | 25.7 | 0.00 | 0.00 | 0.00 | 70 | 1011.1 |
| 20260506171058 | 13 | 345 | 11.3 | 25.7 | 0.00 | 0.00 | 0.00 | 70 | 1011.1 |
| 20260506170958 | 13 | 7 | 11.3 | 25.7 | 0.00 | 0.00 | 0.00 | 70 | 1011.1 |
| 20260506170855 | 13 | 351 | 14.5 | 25.7 | 0.00 | 0.00 | 0.00 | 69 | 1011.1 |
| 20260506170757 | 13 | 357 | 16.1 | 25.7 | 0.00 | 0.00 | 0.00 | 69 | 1011.0 |
| 20260506170656 | 13 | 357 | 16.1 | 25.7 | 0.00 | 0.00 | 0.00 | 69 | 1011.0 |
| 20260506170556 | 13 | 350 | 14.5 | 25.7 | 0.00 | 0.00 | 0.00 | 70 | 1011.1 |
| 20260506170456 | 13 | 344 | 16.1 | 25.7 | 0.00 | 0.00 | 0.00 | 69 | 1011.0 |
| 20260506170355 | 13 | 0 | 14.5 | 25.7 | 0.00 | 0.00 | 0.00 | 70 | 1011.1 |
| 20260506170254 | 13 | 347 | 12.9 | 24.1 | 0.00 | 0.00 | 0.00 | 70 | 1011.1 |
| 20260506170153 | 13 | 357 | 11.3 | 24.1 | 0.00 | 0.00 | 0.00 | 70 | 1011.1 |
| 20260506170053 | 13 | 0 | 9.7 | 25.7 | 0.00 | 0.00 | 0.00 | 70 | 1011.0 |
| 20260506165953 | 13 | 344 | 11.3 | 25.7 | 0.00 | 0.00 | 0.00 | 69 | 1011.0 |
| 20260506165853 | 13 | 354 | 14.5 | 25.7 | 0.00 | 0.00 | 0.00 | 69 | 1011.0 |
| 20260506165753 | 13 | 313 | 14.5 | 25.7 | 0.00 | 0.00 | 0.00 | 69 | 1011.0 |
| 20260506165650 | 13 | 344 | 12.9 | 25.7 | 0.00 | 0.00 | 0.00 | 69 | 1011.0 |
| 20260506165550 | 13 | 326 | 16.1 | 25.7 | 0.00 | 0.00 | 0.00 | 69 | 1011.0 |
| 20260506165449 | 13 | 329 | 14.5 | 25.7 | 0.00 | 0.00 | 0.00 | 70 | 1011.0 |
| 20260506165348 | 13 | 0 | 12.9 | 25.7 | 0.00 | 0.00 | 0.00 | 70 | 1011.0 |
| 20260506165250 | 13 | 0 | 14.5 | 25.7 | 0.00 | 0.00 | 0.00 | 70 | 1010.9 |
| 20260506165148 | 13 | 333 | 14.5 | 25.7 | 0.00 | 0.00 | 0.00 | 70 | 1011.0 |
| 20260506165048 | 13 | 329 | 12.9 | 25.7 | 0.00 | 0.00 | 0.00 | 70 | 1011.0 |
| 20260506164947 | 13 | 331 | 14.5 | 25.7 | 0.00 | 0.00 | 0.00 | 69 | 1010.9 |
| 20260506164846 | 13 | 326 | 14.5 | 25.7 | 0.00 | 0.00 | 0.00 | 69 | 1010.9 |
| 20260506164745 | 13 | 330 | 12.9 | 25.7 | 0.00 | 0.00 | 0.00 | 69 | 1011.0 |
| 20260506164645 | 13 | 0 | 12.9 | 25.7 | 0.00 | 0.00 | 0.00 | 69 | 1011.0 |
| 20260506164544 | 13 | 341 | 12.9 | 25.7 | 0.00 | 0.00 | 0.00 | 69 | 1010.9 |
| 20260506164445 | 13 | 331 | 14.5 | 25.7 | 0.00 | 0.00 | 0.00 | 69 | 1011.0 |
| 20260506164344 | 13 | 350 | 9.7 | 24.1 | 0.00 | 0.00 | 0.00 | 69 | 1010.9 |
| 20260506164244 | 13 | 351 | 9.7 | 24.1 | 0.00 | 0.00 | 0.00 | 69 | 1011.0 |
| 20260506164144 | 13 | 340 | 12.9 | 24.1 | 0.00 | 0.00 | 0.00 | 69 | 1011.0 |
| 20260506164045 | 13 | 0 | 16.1 | 24.1 | 0.00 | 0.00 | 0.00 | 69 | 1010.9 |
| 20260506163943 | 13 | 347 | 16.1 | 24.1 | 0.00 | 0.00 | 0.00 | 69 | 1011.0 |
| 20260506163838 | 13 | 333 | 14.5 | 24.1 | 0.00 | 0.00 | 0.00 | 69 | 1010.9 |
| 20260506163740 | 13 | 343 | 14.5 | 24.1 | 0.00 | 0.00 | 0.00 | 69 | 1011.0 |
| 20260506163639 | 13 | 354 | 16.1 | 24.1 | 0.00 | 0.00 | 0.00 | 69 | 1010.8 |
| 20260506163540 | 13 | 0 | 17.7 | 24.1 | 0.00 | 0.00 | 0.00 | 69 | 1010.9 |
| 20260506163439 | 13 | 334 | 16.1 | 22.5 | 0.00 | 0.00 | 0.00 | 69 | 1010.9 |
| 20260506163338 | 13 | 345 | 14.5 | 22.5 | 0.00 | 0.00 | 0.00 | 69 | 1010.9 |
| 20260506163238 | 13 | 353 | 14.5 | 22.5 | 0.00 | 0.00 | 0.00 | 69 | 1010.9 |
| 20260506163137 | 13 | 0 | 14.5 | 22.5 | 0.00 | 0.00 | 0.00 | 69 | 1010.9 |
| 20260506163038 | 13 | 358 | 14.5 | 22.5 | 0.00 | 0.00 | 0.00 | 69 | 1011.0 |
| 20260506162936 | 13 | 0 | 14.5 | 22.5 | 0.00 | 0.00 | 0.00 | 69 | 1011.0 |
| 20260506162838 | 13 | 354 | 12.9 | 22.5 | 0.00 | 0.00 | 0.00 | 69 | 1010.8 |
| 20260506162738 | 14 | 354 | 11.3 | 27.4 | 0.00 | 0.00 | 0.00 | 69 | 1010.9 |
| 20260506162635 | 13 | 344 | 11.3 | 27.4 | 0.00 | 0.00 | 0.00 | 69 | 1010.9 |
| 20260506162536 | 13 | 341 | 12.9 | 27.4 | 0.00 | 0.00 | 0.00 | 69 | 1010.9 |
| 20260506162435 | 13 | 338 | 11.3 | 27.4 | 0.00 | 0.00 | 0.00 | 70 | 1010.8 |
| 20260506162334 | 13 | 0 | 12.9 | 27.4 | 0.00 | 0.00 | 0.00 | 70 | 1010.8 |
| 20260506162234 | 14 | 265 | 16.1 | 27.4 | 0.00 | 0.00 | 0.00 | 70 | 1010.9 |
| 20260506162130 | 14 | 343 | 14.5 | 27.4 | 0.00 | 0.00 | 0.00 | 70 | 1010.9 |
| 20260506162031 | 14 | 357 | 14.5 | 27.4 | 0.00 | 0.00 | 0.00 | 70 | 1010.8 |
| 20260506161931 | 14 | 18 | 16.1 | 27.4 | 0.00 | 0.00 | 0.00 | 70 | 1010.8 |
| 20260506161831 | 14 | 357 | 16.1 | 27.4 | 0.00 | 0.00 | 0.00 | 70 | 1010.8 |
| 20260506161731 | 14 | 334 | 14.5 | 27.4 | 0.00 | 0.00 | 0.00 | 70 | 1010.8 |
| 20260506161631 | 14 | 0 | 14.5 | 27.4 | 0.00 | 0.00 | 0.00 | 70 | 1010.8 |
| 20260506161530 | 14 | 319 | 14.5 | 27.4 | 0.00 | 0.00 | 0.00 | 71 | 1010.8 |
| 20260506161430 | 14 | 337 | 14.5 | 27.4 | 0.00 | 0.00 | 0.00 | 72 | 1010.8 |
| 20260506161330 | 14 | 0 | 14.5 | 27.4 | 0.00 | 0.00 | 0.00 | 72 | 1010.8 |
| 20260506161230 | 14 | 354 | 11.3 | 27.4 | 0.00 | 0.00 | 0.00 | 72 | 1010.7 |
| 20260506161129 | 13 | 353 | 12.9 | 27.4 | 0.00 | 0.00 | 0.00 | 71 | 1010.8 |
| 20260506161029 | 13 | 331 | 16.1 | 27.4 | 0.00 | 0.00 | 0.00 | 71 | 1010.9 |
| 20260506160930 | 14 | 10 | 16.1 | 27.4 | 0.00 | 0.00 | 0.00 | 71 | 1010.8 |
| 20260506160829 | 14 | 309 | 14.5 | 27.4 | 0.00 | 0.00 | 0.00 | 71 | 1010.9 |
| 20260506160730 | 14 | 340 | 16.1 | 27.4 | 0.00 | 0.00 | 0.00 | 70 | 1010.9 |
| 20260506160630 | 14 | 331 | 17.7 | 27.4 | 0.00 | 0.00 | 0.00 | 71 | 1010.8 |
| 20260506160529 | 14 | 348 | 17.7 | 24.1 | 0.00 | 0.00 | 0.00 | 71 | 1010.9 |
| 20260506160429 | 14 | 343 | 16.1 | 24.1 | 0.00 | 0.00 | 0.00 | 71 | 1010.9 |
| 20260506160329 | 14 | 337 | 14.5 | 24.1 | 0.00 | 0.00 | 0.00 | 70 | 1010.9 |
| 20260506160229 | 14 | 7 | 14.5 | 24.1 | 0.00 | 0.00 | 0.00 | 71 | 1010.9 |
| 20260506160129 | 14 | 358 | 14.5 | 24.1 | 0.00 | 0.00 | 0.00 | 71 | 1010.9 |
| 20260506160028 | 14 | 355 | 16.1 | 24.1 | 0.00 | 0.00 | 0.00 | 71 | 1011.0 |
| 20260506155928 | 14 | 323 | 14.5 | 24.1 | 0.00 | 0.00 | 0.00 | 72 | 1010.9 |
| 20260506155828 | 14 | 344 | 12.9 | 24.1 | 0.00 | 0.00 | 0.00 | 72 | 1010.9 |
| 20260506155727 | 14 | 327 | 12.9 | 24.1 | 0.00 | 0.00 | 0.00 | 72 | 1010.9 |
| 20260506155630 | 14 | 353 | 12.9 | 24.1 | 0.00 | 0.00 | 0.00 | 72 | 1010.9 |
| 20260506155527 | 14 | 272 | 14.5 | 24.1 | 0.00 | 0.00 | 0.00 | 72 | 1010.9 |
| 20260506155427 | 14 | 341 | 14.5 | 24.1 | 0.00 | 0.00 | 0.00 | 72 | 1010.8 |
| 20260506155327 | 14 | 351 | 14.5 | 24.1 | 0.00 | 0.00 | 0.00 | 72 | 1010.9 |
| 20260506155225 | 14 | 337 | 14.5 | 24.1 | 0.00 | 0.00 | 0.00 | 71 | 1010.8 |
| 20260506155124 | 14 | 320 | 16.1 | 24.1 | 0.00 | 0.00 | 0.00 | 71 | 1010.9 |
| 20260506155025 | 14 | 0 | 14.5 | 24.1 | 0.00 | 0.00 | 0.00 | 71 | 1010.9 |
| 20260506154924 | 14 | 336 | 12.9 | 24.1 | 0.00 | 0.00 | 0.00 | 71 | 1010.8 |
| 20260506154823 | 14 | 334 | 12.9 | 22.5 | 0.00 | 0.00 | 0.00 | 70 | 1010.9 |
| 20260506154723 | 14 | 358 | 14.5 | 22.5 | 0.00 | 0.00 | 0.00 | 70 | 1010.9 |
| 20260506154620 | 14 | 353 | 14.5 | 22.5 | 0.00 | 0.00 | 0.00 | 71 | 1010.8 |
| 20260506154521 | 14 | 348 | 12.9 | 22.5 | 0.00 | 0.00 | 0.00 | 72 | 1010.8 |
| 20260506154420 | 14 | 347 | 11.3 | 22.5 | 0.00 | 0.00 | 0.00 | 71 | 1010.9 |
| 20260506154320 | 14 | 341 | 11.3 | 22.5 | 0.00 | 0.00 | 0.00 | 71 | 1010.8 |
| 20260506154219 | 14 | 305 | 11.3 | 22.5 | 0.00 | 0.00 | 0.00 | 71 | 1010.9 |
| 20260506154118 | 14 | 0 | 12.9 | 22.5 | 0.00 | 0.00 | 0.00 | 70 | 1010.8 |
| 20260506154018 | 14 | 336 | 14.5 | 22.5 | 0.00 | 0.00 | 0.00 | 70 | 1010.9 |
| 20260506153918 | 14 | 319 | 14.5 | 22.5 | 0.00 | 0.00 | 0.00 | 70 | 1010.8 |
| 20260506153818 | 14 | 6 | 11.3 | 22.5 | 0.00 | 0.00 | 0.00 | 70 | 1010.9 |
| 20260506153714 | 14 | 21 | 12.9 | 22.5 | 0.00 | 0.00 | 0.00 | 71 | 1010.9 |
| 20260506153615 | 14 | 324 | 12.9 | 22.5 | 0.00 | 0.00 | 0.00 | 71 | 1010.8 |
| 20260506153514 | 14 | 348 | 11.3 | 22.5 | 0.00 | 0.00 | 0.00 | 71 | 1010.9 |
| 20260506153415 | 14 | 336 | 12.9 | 24.1 | 0.00 | 0.00 | 0.00 | 72 | 1010.9 |
| 20260506153313 | 14 | 344 | 14.5 | 24.1 | 0.00 | 0.00 | 0.00 | 72 | 1010.9 |
| 20260506153213 | 14 | 350 | 14.5 | 24.1 | 0.00 | 0.00 | 0.00 | 72 | 1010.8 |
| 20260506153114 | 14 | 341 | 12.9 | 24.1 | 0.00 | 0.00 | 0.00 | 72 | 1010.8 |
| 20260506153013 | 14 | 340 | 9.7 | 24.1 | 0.00 | 0.00 | 0.00 | 72 | 1010.9 |
| 20260506152914 | 14 | 343 | 11.3 | 24.1 | 0.00 | 0.00 | 0.00 | 71 | 1010.9 |
| 20260506152812 | 14 | 0 | 11.3 | 24.1 | 0.00 | 0.00 | 0.00 | 70 | 1010.9 |
| 20260506152710 | 14 | 344 | 11.3 | 24.1 | 0.00 | 0.00 | 0.00 | 70 | 1010.9 |
| 20260506152622 | 14 | 343 | 14.5 | 24.1 | 0.00 | 0.00 | 0.00 | 70 | 1011.0 |
| 20260506152508 | 14 | 326 | 14.5 | 24.1 | 0.00 | 0.00 | 0.00 | 70 | 1010.8 |
| 20260506152409 | 14 | 350 | 12.9 | 24.1 | 0.00 | 0.00 | 0.00 | 70 | 1010.9 |
| 20260506152309 | 14 | 0 | 12.9 | 24.1 | 0.00 | 0.00 | 0.00 | 69 | 1010.9 |
| 20260506152210 | 14 | 354 | 14.5 | 24.1 | 0.00 | 0.00 | 0.00 | 69 | 1010.9 |
| 20260506152108 | 15 | 338 | 14.5 | 24.1 | 0.00 | 0.00 | 0.00 | 69 | 1010.9 |
| 20260506152009 | 15 | 327 | 12.9 | 24.1 | 0.00 | 0.00 | 0.00 | 70 | 1010.8 |
| 20260506151907 | 15 | 340 | 11.3 | 24.1 | 0.00 | 0.00 | 0.00 | 70 | 1010.9 |
| 20260506151808 | 15 | 344 | 11.3 | 24.1 | 0.00 | 0.00 | 0.00 | 70 | 1010.8 |
| 20260506151707 | 15 | 355 | 11.3 | 22.5 | 0.00 | 0.00 | 0.00 | 70 | 1010.8 |
| 20260506151607 | 15 | 307 | 11.3 | 22.5 | 0.00 | 0.00 | 0.00 | 70 | 1010.9 |
| 20260506151507 | 15 | 331 | 11.3 | 22.5 | 0.00 | 0.00 | 0.00 | 68 | 1010.8 |
| 20260506151406 | 15 | 0 | 12.9 | 22.5 | 0.00 | 0.00 | 0.00 | 67 | 1010.8 |
| 20260506151305 | 15 | 341 | 11.3 | 20.9 | 0.00 | 0.00 | 0.00 | 67 | 1010.8 |
| 20260506151203 | 15 | 331 | 12.9 | 20.9 | 0.00 | 0.00 | 0.00 | 67 | 1010.8 |
| 20260506151103 | 15 | 355 | 14.5 | 20.9 | 0.00 | 0.00 | 0.00 | 67 | 1010.8 |
| 20260506151002 | 15 | 313 | 14.5 | 20.9 | 0.00 | 0.00 | 0.00 | 67 | 1010.8 |
| 20260506150901 | 15 | 6 | 11.3 | 20.9 | 0.00 | 0.00 | 0.00 | 68 | 1010.8 |
| 20260506150801 | 15 | 358 | 11.3 | 20.9 | 0.00 | 0.00 | 0.00 | 68 | 1010.8 |
| 20260506150703 | 15 | 341 | 12.9 | 20.9 | 0.00 | 0.00 | 0.00 | 68 | 1010.8 |
| 20260506150601 | 15 | 341 | 14.5 | 20.9 | 0.00 | 0.00 | 0.00 | 68 | 1010.8 |
| 20260506150502 | 15 | 338 | 12.9 | 20.9 | 0.00 | 0.00 | 0.00 | 70 | 1010.8 |
| 20260506150401 | 15 | 333 | 9.7 | 19.3 | 0.00 | 0.00 | 0.00 | 70 | 1010.7 |
| 20260506150305 | 15 | 344 | 9.7 | 22.5 | 0.00 | 0.00 | 0.00 | 69 | 1010.8 |
| 20260506150202 | 15 | 333 | 11.3 | 25.7 | 0.00 | 0.00 | 0.00 | 69 | 1010.8 |
| 20260506150000 | 14 | 292 | 9.7 | 25.7 | 0.00 | 0.00 | 0.00 | 69 | 1010.8 |
| 20260506145901 | 14 | 353 | 9.7 | 25.7 | 0.00 | 0.00 | 0.00 | 68 | 1010.9 |
| 20260506145759 | 14 | 357 | 9.7 | 27.4 | 0.00 | 0.00 | 0.00 | 68 | 1010.8 |
| 20260506145700 | 14 | 321 | 9.7 | 27.4 | 0.00 | 0.00 | 0.00 | 68 | 1010.8 |
| 20260506145559 | 14 | 282 | 12.9 | 27.4 | 0.00 | 0.00 | 0.00 | 68 | 1010.9 |
| 20260506145459 | 14 | 344 | 14.5 | 27.4 | 0.00 | 0.00 | 0.00 | 67 | 1010.8 |
| 20260506145358 | 14 | 353 | 16.1 | 27.4 | 0.00 | 0.00 | 0.00 | 68 | 1010.8 |
| 20260506145258 | 14 | 358 | 12.9 | 27.4 | 0.00 | 0.00 | 0.00 | 69 | 1010.9 |
| 20260506145158 | 14 | 355 | 11.3 | 27.4 | 0.00 | 0.00 | 0.00 | 68 | 1010.7 |
| 20260506145054 | 14 | 336 | 14.5 | 27.4 | 0.00 | 0.00 | 0.00 | 67 | 1010.8 |
| 20260506144954 | 14 | 324 | 17.7 | 27.4 | 0.00 | 0.00 | 0.00 | 67 | 1010.8 |
| 20260506144853 | 14 | 324 | 17.7 | 27.4 | 0.00 | 0.00 | 0.00 | 67 | 1010.8 |
| 20260506144754 | 14 | 326 | 14.5 | 24.1 | 0.00 | 0.00 | 0.00 | 68 | 1010.8 |
| 20260506144653 | 14 | 347 | 11.3 | 24.1 | 0.00 | 0.00 | 0.00 | 68 | 1010.8 |
| 20260506144554 | 14 | 319 | 11.3 | 25.7 | 0.00 | 0.00 | 0.00 | 68 | 1010.8 |
| 20260506144454 | 14 | 350 | 14.5 | 25.7 | 0.00 | 0.00 | 0.00 | 68 | 1010.8 |
| 20260506144353 | 14 | 313 | 14.5 | 25.7 | 0.00 | 0.00 | 0.00 | 68 | 1010.9 |
| 20260506144254 | 14 | 338 | 14.5 | 25.7 | 0.00 | 0.00 | 0.00 | 70 | 1010.8 |
| 20260506144151 | 14 | 343 | 12.9 | 25.7 | 0.00 | 0.00 | 0.00 | 71 | 1010.8 |
| 20260506144052 | 14 | 350 | 12.9 | 25.7 | 0.00 | 0.00 | 0.00 | 70 | 1010.8 |
| 20260506143950 | 14 | 288 | 14.5 | 25.7 | 0.00 | 0.00 | 0.00 | 69 | 1010.8 |
| 20260506143850 | 14 | 327 | 14.5 | 29.0 | 0.00 | 0.00 | 0.00 | 68 | 1010.8 |
| 20260506143750 | 15 | 358 | 16.1 | 29.0 | 0.00 | 0.00 | 0.00 | 68 | 1010.9 |
| 20260506143650 | 15 | 347 | 14.5 | 29.0 | 0.00 | 0.00 | 0.00 | 69 | 1010.8 |
| 20260506143550 | 14 | 333 | 12.9 | 29.0 | 0.00 | 0.00 | 0.00 | 69 | 1010.9 |
| 20260506143449 | 14 | 350 | 14.5 | 29.0 | 0.00 | 0.00 | 0.00 | 70 | 1010.8 |
| 20260506143348 | 15 | 340 | 16.1 | 29.0 | 0.00 | 0.00 | 0.00 | 69 | 1010.8 |
| 20260506143248 | 14 | 340 | 11.3 | 29.0 | 0.00 | 0.00 | 0.00 | 69 | 1010.8 |
| 20260506143148 | 14 | 0 | 14.5 | 29.0 | 0.00 | 0.00 | 0.00 | 68 | 1010.8 |
| 20260506143048 | 14 | 289 | 17.7 | 29.0 | 0.00 | 0.00 | 0.00 | 68 | 1010.8 |
| 20260506142947 | 15 | 336 | 16.1 | 29.0 | 0.00 | 0.00 | 0.00 | 69 | 1010.7 |
| 20260506142847 | 14 | 345 | 12.9 | 24.1 | 0.00 | 0.00 | 0.00 | 70 | 1010.8 |
| 20260506142746 | 14 | 1 | 12.9 | 24.1 | 0.00 | 0.00 | 0.00 | 70 | 1010.8 |
| 20260506142643 | 14 | 330 | 16.1 | 24.1 | 0.00 | 0.00 | 0.00 | 70 | 1010.8 |
| 20260506142545 | 14 | 334 | 14.5 | 24.1 | 0.00 | 0.00 | 0.00 | 70 | 1010.7 |
| 20260506142442 | 14 | 317 | 9.7 | 24.1 | 0.00 | 0.00 | 0.00 | 71 | 1010.7 |
| 20260506142341 | 14 | 347 | 9.7 | 24.1 | 0.00 | 0.00 | 0.00 | 70 | 1010.8 |
| 20260506142240 | 14 | 0 | 12.9 | 24.1 | 0.00 | 0.00 | 0.00 | 70 | 1010.7 |
| 20260506142138 | 15 | 0 | 16.1 | 24.1 | 0.00 | 0.00 | 0.00 | 70 | 1010.8 |
| 20260506142037 | 15 | 355 | 14.5 | 24.1 | 0.00 | 0.00 | 0.00 | 70 | 1010.7 |
| 20260506141938 | 15 | 0 | 12.9 | 24.1 | 0.00 | 0.00 | 0.00 | 71 | 1010.7 |
| 20260506141837 | 15 | 331 | 12.9 | 22.5 | 0.00 | 0.00 | 0.00 | 70 | 1010.7 |
| 20260506141737 | 15 | 341 | 14.5 | 22.5 | 0.00 | 0.00 | 0.00 | 70 | 1010.8 |
| 20260506141637 | 15 | 345 | 12.9 | 22.5 | 0.00 | 0.00 | 0.00 | 70 | 1010.7 |
| 20260506141539 | 15 | 358 | 12.9 | 22.5 | 0.00 | 0.00 | 0.00 | 70 | 1010.8 |
| 20260506141439 | 15 | 344 | 11.3 | 22.5 | 0.00 | 0.00 | 0.00 | 70 | 1010.7 |
| 20260506141336 | 15 | 341 | 12.9 | 22.5 | 0.00 | 0.00 | 0.00 | 70 | 1010.7 |
| 20260506141236 | 15 | 18 | 16.1 | 22.5 | 0.00 | 0.00 | 0.00 | 71 | 1010.7 |
| 20260506141136 | 15 | 337 | 14.5 | 22.5 | 0.00 | 0.00 | 0.00 | 72 | 1010.8 |
| 20260506141035 | 15 | 0 | 11.3 | 22.5 | 0.00 | 0.00 | 0.00 | 72 | 1010.8 |
| 20260506140935 | 15 | 350 | 11.3 | 22.5 | 0.00 | 0.00 | 0.00 | 73 | 1010.8 |
| 20260506140831 | 15 | 310 | 12.9 | 22.5 | 0.00 | 0.00 | 0.00 | 73 | 1010.8 |
| 20260506140730 | 15 | 278 | 11.3 | 30.6 | 0.00 | 0.00 | 0.00 | 71 | 1010.8 |
| 20260506140627 | 15 | 293 | 11.3 | 30.6 | 0.00 | 0.00 | 0.00 | 71 | 1010.8 |
| 20260506140528 | 15 | 319 | 12.9 | 30.6 | 0.00 | 0.00 | 0.00 | 70 | 1010.9 |
| 20260506140426 | 15 | 330 | 14.5 | 30.6 | 0.00 | 0.00 | 0.00 | 71 | 1010.8 |
| 20260506140326 | 15 | 324 | 12.9 | 30.6 | 0.00 | 0.00 | 0.00 | 72 | 1010.8 |
| 20260506140226 | 15 | 324 | 11.3 | 30.6 | 0.00 | 0.00 | 0.00 | 72 | 1010.8 |
| 20260506140127 | 15 | 323 | 11.3 | 30.6 | 0.00 | 0.00 | 0.00 | 72 | 1010.8 |
| 20260506140025 | 15 | 314 | 12.9 | 30.6 | 0.00 | 0.00 | 0.00 | 72 | 1010.9 |
| 20260506135924 | 15 | 357 | 17.7 | 30.6 | 0.00 | 0.00 | 0.00 | 71 | 1010.9 |
| 20260506135824 | 15 | 329 | 17.7 | 30.6 | 0.00 | 0.00 | 0.00 | 72 | 1010.9 |
| 20260506135724 | 15 | 343 | 12.9 | 22.5 | 0.00 | 0.00 | 0.00 | 74 | 1010.9 |
| 20260506135624 | 15 | 320 | 11.3 | 22.5 | 0.00 | 0.00 | 0.00 | 75 | 1010.9 |
| 20260506135524 | 15 | 329 | 12.9 | 25.7 | 0.00 | 0.00 | 0.00 | 75 | 1010.9 |
| 20260506135423 | 15 | 314 | 9.7 | 25.7 | 0.00 | 0.00 | 0.00 | 75 | 1010.9 |
| 20260506135322 | 14 | 0 | 11.3 | 25.7 | 0.00 | 0.00 | 0.00 | 74 | 1010.9 |
| 20260506135222 | 14 | 320 | 11.3 | 25.7 | 0.00 | 0.00 | 0.00 | 75 | 1010.8 |
| 20260506135122 | 14 | 0 | 8.0 | 25.7 | 0.00 | 0.00 | 0.00 | 75 | 1010.9 |
| 20260506135021 | 14 | 321 | 11.3 | 25.7 | 0.00 | 0.00 | 0.00 | 76 | 1010.9 |
| 20260506134921 | 14 | 313 | 14.5 | 25.7 | 0.00 | 0.00 | 0.00 | 75 | 1010.9 |
| 20260506134820 | 14 | 293 | 14.5 | 25.7 | 0.00 | 0.00 | 0.00 | 76 | 1010.9 |
| 20260506134720 | 14 | 302 | 12.9 | 25.7 | 0.00 | 0.00 | 0.00 | 75 | 1010.8 |
| 20260506134622 | 14 | 286 | 14.5 | 25.7 | 0.00 | 0.00 | 0.00 | 75 | 1010.9 |
| 20260506134519 | 14 | 333 | 11.3 | 25.7 | 0.00 | 0.00 | 0.00 | 75 | 1010.8 |
| 20260506134417 | 14 | 290 | 9.7 | 25.7 | 0.00 | 0.00 | 0.00 | 72 | 1010.8 |
| 20260506134314 | 14 | 350 | 11.3 | 25.7 | 0.00 | 0.00 | 0.00 | 72 | 1010.9 |
| 20260506134213 | 14 | 355 | 14.5 | 25.7 | 0.00 | 0.00 | 0.00 | 73 | 1010.9 |
| 20260506134112 | 15 | 343 | 16.1 | 25.7 | 0.00 | 0.00 | 0.00 | 74 | 1010.9 |
| 20260506134009 | 15 | 4 | 16.1 | 25.7 | 0.00 | 0.00 | 0.00 | 75 | 1010.9 |
| 20260506133910 | 15 | 275 | 12.9 | 24.1 | 0.00 | 0.00 | 0.00 | 76 | 1010.8 |
| 20260506133810 | 15 | 314 | 11.3 | 19.3 | 0.00 | 0.00 | 0.00 | 76 | 1010.8 |
| 20260506133704 | 15 | 338 | 11.3 | 19.3 | 0.00 | 0.00 | 0.00 | 75 | 1010.9 |
| 20260506133604 | 15 | 285 | 12.9 | 20.9 | 0.00 | 0.00 | 0.00 | 75 | 1010.9 |
| 20260506133506 | 15 | 285 | 11.3 | 20.9 | 0.00 | 0.00 | 0.00 | 75 | 1010.9 |
| 20260506133403 | 15 | 296 | 9.7 | 20.9 | 0.00 | 0.00 | 0.00 | 76 | 1010.9 |
| 20260506133304 | 15 | 341 | 11.3 | 20.9 | 0.00 | 0.00 | 0.00 | 77 | 1010.9 |
| 20260506133201 | 15 | 334 | 12.9 | 20.9 | 0.00 | 0.00 | 0.00 | 75 | 1010.9 |
| 20260506133101 | 15 | 296 | 12.9 | 20.9 | 0.00 | 0.00 | 0.00 | 76 | 1010.9 |
| 20260506133001 | 15 | 348 | 11.3 | 20.9 | 0.00 | 0.00 | 0.00 | 76 | 1010.9 |
| 20260506132901 | 15 | 286 | 11.3 | 20.9 | 0.00 | 0.00 | 0.00 | 76 | 1010.9 |
| 20260506132802 | 15 | 306 | 14.5 | 20.9 | 0.00 | 0.00 | 0.00 | 76 | 1011.0 |
| 20260506132702 | 15 | 330 | 14.5 | 20.9 | 0.00 | 0.00 | 0.00 | 75 | 1010.9 |
| 20260506132601 | 15 | 293 | 11.3 | 25.7 | 0.00 | 0.00 | 0.00 | 75 | 1010.9 |
| 20260506132504 | 15 | 340 | 11.3 | 25.7 | 0.00 | 0.00 | 0.00 | 75 | 1011.0 |
| 20260506132401 | 15 | 354 | 9.7 | 25.7 | 0.00 | 0.00 | 0.00 | 75 | 1010.9 |
| 20260506132301 | 15 | 286 | 11.3 | 25.7 | 0.00 | 0.00 | 0.00 | 75 | 1010.9 |
| 20260506132202 | 14 | 307 | 11.3 | 25.7 | 0.00 | 0.00 | 0.00 | 75 | 1010.8 |
| 20260506132103 | 14 | 344 | 9.7 | 25.7 | 0.00 | 0.00 | 0.00 | 75 | 1010.9 |
| 20260506132003 | 14 | 319 | 9.7 | 25.7 | 0.00 | 0.00 | 0.00 | 74 | 1010.8 |
| 20260506131903 | 14 | 338 | 12.9 | 25.7 | 0.00 | 0.00 | 0.00 | 72 | 1010.9 |
| 20260506131801 | 14 | 333 | 14.5 | 25.7 | 0.00 | 0.00 | 0.00 | 72 | 1010.9 |
| 20260506131701 | 14 | 327 | 12.9 | 25.7 | 0.00 | 0.00 | 0.00 | 72 | 1010.8 |
| 20260506131601 | 14 | 3 | 12.9 | 24.1 | 0.00 | 0.00 | 0.00 | 72 | 1010.9 |
| 20260506131458 | 14 | 357 | 12.9 | 24.1 | 0.00 | 0.00 | 0.00 | 73 | 1010.9 |
| 20260506131357 | 14 | 340 | 14.5 | 24.1 | 0.00 | 0.00 | 0.00 | 72 | 1010.9 |
| 20260506131258 | 14 | 0 | 17.7 | 24.1 | 0.00 | 0.00 | 0.00 | 72 | 1010.9 |
| 20260506131200 | 14 | 337 | 12.9 | 24.1 | 0.00 | 0.00 | 0.00 | 74 | 1010.8 |
| 20260506131059 | 14 | 321 | 11.3 | 24.1 | 0.00 | 0.00 | 0.00 | 74 | 1010.7 |
| 20260506130957 | 14 | 330 | 14.5 | 24.1 | 0.00 | 0.00 | 0.00 | 73 | 1010.7 |
| 20260506130855 | 14 | 330 | 16.1 | 24.1 | 0.00 | 0.00 | 0.00 | 72 | 1010.8 |
| 20260506130756 | 14 | 341 | 16.1 | 24.1 | 0.00 | 0.00 | 0.00 | 72 | 1010.8 |
| 20260506130654 | 14 | 337 | 16.1 | 24.1 | 0.00 | 0.00 | 0.00 | 72 | 1010.8 |
| 20260506130552 | 14 | 336 | 14.5 | 24.1 | 0.00 | 0.00 | 0.00 | 72 | 1010.9 |
| 20260506130446 | 14 | 358 | 14.5 | 24.1 | 0.00 | 0.00 | 0.00 | 72 | 1010.7 |
| 20260506130344 | 14 | 337 | 14.5 | 24.1 | 0.00 | 0.00 | 0.00 | 73 | 1010.7 |
| 20260506130244 | 14 | 7 | 14.5 | 24.1 | 0.00 | 0.00 | 0.00 | 74 | 1010.7 |
| 20260506130143 | 14 | 351 | 11.3 | 25.7 | 0.00 | 0.00 | 0.00 | 74 | 1010.7 |
| 20260506130042 | 14 | 323 | 12.9 | 25.7 | 0.00 | 0.00 | 0.00 | 73 | 1010.7 |
| 20260506125942 | 14 | 348 | 12.9 | 25.7 | 0.00 | 0.00 | 0.00 | 74 | 1010.7 |
| 20260506125842 | 13 | 324 | 12.9 | 25.7 | 0.00 | 0.00 | 0.00 | 74 | 1010.7 |
| 20260506125746 | 13 | 345 | 12.9 | 25.7 | 0.00 | 0.00 | 0.00 | 74 | 1010.7 |
| 20260506125640 | 13 | 334 | 14.5 | 25.7 | 0.00 | 0.00 | 0.00 | 74 | 1010.7 |
| 20260506125540 | 13 | 344 | 12.9 | 25.7 | 0.00 | 0.00 | 0.00 | 73 | 1010.7 |
| 20260506125440 | 13 | 323 | 14.5 | 25.7 | 0.00 | 0.00 | 0.00 | 74 | 1010.6 |
| 20260506125237 | 14 | 8 | 14.5 | 25.7 | 0.00 | 0.00 | 0.00 | 75 | 1010.6 |
| 20260506125137 | 14 | 0 | 11.3 | 25.7 | 0.00 | 0.00 | 0.00 | 74 | 1010.6 |
| 20260506125038 | 14 | 336 | 14.5 | 25.7 | 0.00 | 0.00 | 0.00 | 73 | 1010.5 |
| 20260506124934 | 14 | 347 | 16.1 | 25.7 | 0.00 | 0.00 | 0.00 | 72 | 1010.7 |
| 20260506124836 | 15 | 348 | 14.5 | 22.5 | 0.00 | 0.00 | 0.00 | 73 | 1010.6 |
| 20260506124737 | 15 | 323 | 11.3 | 22.5 | 0.00 | 0.00 | 0.00 | 74 | 1010.6 |
| 20260506124637 | 15 | 354 | 14.5 | 22.5 | 0.00 | 0.00 | 0.00 | 74 | 1010.6 |
| 20260506124536 | 14 | 347 | 12.9 | 24.1 | 0.00 | 0.00 | 0.00 | 74 | 1010.5 |
| 20260506124434 | 14 | 351 | 11.3 | 24.1 | 0.00 | 0.00 | 0.00 | 75 | 1010.5 |
| 20260506124333 | 14 | 338 | 12.9 | 27.4 | 0.00 | 0.00 | 0.00 | 74 | 1010.6 |
| 20260506124233 | 14 | 347 | 12.9 | 27.4 | 0.00 | 0.00 | 0.00 | 73 | 1010.7 |
| 20260506124133 | 14 | 354 | 12.9 | 27.4 | 0.00 | 0.00 | 0.00 | 74 | 1010.7 |
| 20260506124033 | 14 | 320 | 11.3 | 27.4 | 0.00 | 0.00 | 0.00 | 74 | 1010.6 |
| 20260506123934 | 14 | 0 | 11.3 | 27.4 | 0.00 | 0.00 | 0.00 | 74 | 1010.6 |
| 20260506123834 | 14 | 334 | 12.9 | 27.4 | 0.00 | 0.00 | 0.00 | 74 | 1010.6 |
| 20260506123733 | 14 | 341 | 16.1 | 29.0 | 0.00 | 0.00 | 0.00 | 75 | 1010.5 |
| 20260506123633 | 14 | 327 | 14.5 | 29.0 | 0.00 | 0.00 | 0.00 | 74 | 1010.5 |
| 20260506123533 | 14 | 0 | 14.5 | 29.0 | 0.00 | 0.00 | 0.00 | 74 | 1010.7 |
| 20260506123433 | 14 | 344 | 16.1 | 29.0 | 0.00 | 0.00 | 0.00 | 74 | 1010.7 |
| 20260506123333 | 14 | 0 | 16.1 | 29.0 | 0.00 | 0.00 | 0.00 | 74 | 1010.6 |
| 20260506123234 | 14 | 337 | 16.1 | 29.0 | 0.00 | 0.00 | 0.00 | 73 | 1010.6 |
| 20260506123134 | 14 | 343 | 17.7 | 29.0 | 0.00 | 0.00 | 0.00 | 73 | 1010.6 |
| 20260506123033 | 14 | 0 | 16.1 | 29.0 | 0.00 | 0.00 | 0.00 | 73 | 1010.6 |
| 20260506122933 | 14 | 351 | 17.7 | 29.0 | 0.00 | 0.00 | 0.00 | 72 | 1010.6 |
| 20260506122834 | 14 | 348 | 17.7 | 29.0 | 0.00 | 0.00 | 0.00 | 72 | 1010.6 |
| 20260506122736 | 14 | 290 | 14.5 | 24.1 | 0.00 | 0.00 | 0.00 | 72 | 1010.6 |
| 20260506122636 | 15 | 343 | 14.5 | 24.1 | 0.00 | 0.00 | 0.00 | 73 | 1010.6 |
| 20260506122536 | 15 | 307 | 16.1 | 24.1 | 0.00 | 0.00 | 0.00 | 72 | 1010.6 |
| 20260506122434 | 15 | 323 | 14.5 | 24.1 | 0.00 | 0.00 | 0.00 | 73 | 1010.7 |
| 20260506122333 | 15 | 338 | 14.5 | 24.1 | 0.00 | 0.00 | 0.00 | 73 | 1010.7 |
| 20260506122233 | 15 | 348 | 16.1 | 24.1 | 0.00 | 0.00 | 0.00 | 72 | 1010.7 |
| 20260506122134 | 15 | 303 | 14.5 | 24.1 | 0.00 | 0.00 | 0.00 | 74 | 1010.7 |
| 20260506122034 | 15 | 334 | 11.3 | 24.1 | 0.00 | 0.00 | 0.00 | 74 | 1010.7 |
| 20260506121933 | 14 | 323 | 11.3 | 24.1 | 0.00 | 0.00 | 0.00 | 74 | 1010.6 |
| 20260506121833 | 14 | 323 | 14.5 | 30.6 | 0.00 | 0.00 | 0.00 | 73 | 1010.6 |
| 20260506121733 | 14 | 355 | 16.1 | 30.6 | 0.00 | 0.00 | 0.00 | 72 | 1010.7 |
| 20260506121633 | 14 | 353 | 16.1 | 30.6 | 0.00 | 0.00 | 0.00 | 73 | 1010.6 |
| 20260506121533 | 14 | 338 | 12.9 | 30.6 | 0.00 | 0.00 | 0.00 | 74 | 1010.6 |
| 20260506121433 | 14 | 334 | 9.7 | 30.6 | 0.00 | 0.00 | 0.00 | 74 | 1010.7 |
| 20260506121335 | 14 | 333 | 12.9 | 30.6 | 0.00 | 0.00 | 0.00 | 74 | 1010.7 |
| 20260506121237 | 14 | 341 | 14.5 | 30.6 | 0.00 | 0.00 | 0.00 | 75 | 1010.6 |
| 20260506121136 | 14 | 321 | 14.5 | 30.6 | 0.00 | 0.00 | 0.00 | 75 | 1010.6 |
| 20260506121037 | 13 | 348 | 16.1 | 30.6 | 0.00 | 0.00 | 0.00 | 74 | 1010.7 |
| 20260506120934 | 13 | 357 | 19.3 | 30.6 | 0.00 | 0.00 | 0.00 | 73 | 1010.6 |
| 20260506120834 | 13 | 345 | 14.5 | 30.6 | 0.00 | 0.00 | 0.00 | 74 | 1010.6 |
| 20260506120734 | 13 | 347 | 17.7 | 30.6 | 0.00 | 0.00 | 0.00 | 72 | 1010.7 |
| 20260506120633 | 14 | 0 | 20.9 | 30.6 | 0.00 | 0.00 | 0.00 | 73 | 1010.7 |
| 20260506120534 | 14 | 323 | 17.7 | 27.4 | 0.00 | 0.00 | 0.00 | 73 | 1010.6 |
| 20260506120432 | 14 | 353 | 17.7 | 27.4 | 0.00 | 0.00 | 0.00 | 73 | 1010.7 |
| 20260506120333 | 14 | 336 | 16.1 | 27.4 | 0.00 | 0.00 | 0.00 | 73 | 1010.7 |
| 20260506120233 | 14 | 0 | 16.1 | 27.4 | 0.00 | 0.00 | 0.00 | 71 | 1010.5 |
| 20260506120133 | 14 | 340 | 17.7 | 27.4 | 0.00 | 0.00 | 0.00 | 71 | 1010.6 |
| 20260506120033 | 14 | 336 | 16.1 | 27.4 | 0.00 | 0.00 | 0.00 | 72 | 1010.6 |
| 20260506115934 | 14 | 334 | 12.9 | 27.4 | 0.00 | 0.00 | 0.00 | 74 | 1010.6 |
| 20260506115833 | 14 | 348 | 12.9 | 27.4 | 0.00 | 0.00 | 0.00 | 74 | 1010.5 |
| 20260506115733 | 14 | 333 | 16.1 | 27.4 | 0.00 | 0.00 | 0.00 | 74 | 1010.5 |
| 20260506115633 | 14 | 337 | 16.1 | 27.4 | 0.00 | 0.00 | 0.00 | 73 | 1010.5 |
| 20260506115534 | 14 | 338 | 16.1 | 27.4 | 0.00 | 0.00 | 0.00 | 72 | 1010.5 |
| 20260506115433 | 14 | 292 | 16.1 | 27.4 | 0.00 | 0.00 | 0.00 | 72 | 1010.6 |
| 20260506115348 | 14 | 0 | 16.1 | 24.1 | 0.00 | 0.00 | 0.00 | 72 | 1010.5 |
| 20260506115233 | 14 | 0 | 14.5 | 24.1 | 0.00 | 0.00 | 0.00 | 72 | 1010.5 |
| 20260506115133 | 14 | 305 | 14.5 | 24.1 | 0.00 | 0.00 | 0.00 | 72 | 1010.5 |
| 20260506115034 | 14 | 329 | 14.5 | 24.1 | 0.00 | 0.00 | 0.00 | 73 | 1010.5 |
| 20260506114934 | 14 | 341 | 16.1 | 24.1 | 0.00 | 0.00 | 0.00 | 73 | 1010.6 |
| 20260506114833 | 14 | 324 | 14.5 | 24.1 | 0.00 | 0.00 | 0.00 | 74 | 1010.5 |
| 20260506114734 | 14 | 292 | 14.5 | 24.1 | 0.00 | 0.00 | 0.00 | 74 | 1010.5 |
| 20260506114633 | 14 | 0 | 14.5 | 24.1 | 0.00 | 0.00 | 0.00 | 73 | 1010.6 |
| 20260506114533 | 14 | 350 | 14.5 | 24.1 | 0.00 | 0.00 | 0.00 | 74 | 1010.6 |
| 20260506114433 | 14 | 343 | 11.3 | 20.9 | 0.00 | 0.00 | 0.00 | 75 | 1010.4 |
| 20260506114333 | 14 | 347 | 11.3 | 20.9 | 0.00 | 0.00 | 0.00 | 74 | 1010.5 |
| 20260506114233 | 14 | 351 | 12.9 | 20.9 | 0.00 | 0.00 | 0.00 | 75 | 1010.5 |
| 20260506114134 | 14 | 286 | 12.9 | 20.9 | 0.00 | 0.00 | 0.00 | 75 | 1010.5 |
| 20260506114033 | 14 | 338 | 12.9 | 20.9 | 0.00 | 0.00 | 0.00 | 75 | 1010.5 |
| 20260506113935 | 13 | 355 | 12.9 | 20.9 | 0.00 | 0.00 | 0.00 | 75 | 1010.5 |
| 20260506113835 | 13 | 338 | 11.3 | 20.9 | 0.00 | 0.00 | 0.00 | 74 | 1010.5 |
| 20260506113733 | 13 | 336 | 12.9 | 20.9 | 0.00 | 0.00 | 0.00 | 74 | 1010.5 |
| 20260506113634 | 13 | 357 | 14.5 | 22.5 | 0.00 | 0.00 | 0.00 | 74 | 1010.6 |
| 20260506113534 | 13 | 338 | 12.9 | 22.5 | 0.00 | 0.00 | 0.00 | 74 | 1010.5 |
| 20260506113433 | 13 | 0 | 12.9 | 22.5 | 0.00 | 0.00 | 0.00 | 74 | 1010.5 |
| 20260506113335 | 13 | 323 | 12.9 | 25.7 | 0.00 | 0.00 | 0.00 | 74 | 1010.5 |
| 20260506113233 | 13 | 0 | 11.3 | 25.7 | 0.00 | 0.00 | 0.00 | 75 | 1010.6 |
| 20260506113132 | 13 | 337 | 11.3 | 25.7 | 0.00 | 0.00 | 0.00 | 75 | 1010.6 |
| 20260506113034 | 13 | 303 | 14.5 | 25.7 | 0.00 | 0.00 | 0.00 | 74 | 1010.5 |
| 20260506112932 | 13 | 348 | 14.5 | 25.7 | 0.00 | 0.00 | 0.00 | 75 | 1010.5 |
| 20260506112834 | 13 | 338 | 16.1 | 25.7 | 0.00 | 0.00 | 0.00 | 75 | 1010.5 |
| 20260506112734 | 13 | 0 | 16.1 | 25.7 | 0.00 | 0.00 | 0.00 | 75 | 1010.5 |
| 20260506112633 | 13 | 340 | 14.5 | 25.7 | 0.00 | 0.00 | 0.00 | 75 | 1010.4 |
| 20260506112532 | 13 | 333 | 14.5 | 25.7 | 0.00 | 0.00 | 0.00 | 75 | 1010.5 |
| 20260506112434 | 13 | 320 | 14.5 | 25.7 | 0.00 | 0.00 | 0.00 | 75 | 1010.5 |
| 20260506112333 | 13 | 358 | 12.9 | 22.5 | 0.00 | 0.00 | 0.00 | 75 | 1010.6 |
| 20260506112232 | 13 | 4 | 12.9 | 22.5 | 0.00 | 0.00 | 0.00 | 75 | 1010.6 |
| 20260506112134 | 13 | 0 | 12.9 | 22.5 | 0.00 | 0.00 | 0.00 | 75 | 1010.5 |
| 20260506112033 | 13 | 0 | 12.9 | 24.1 | 0.00 | 0.00 | 0.00 | 75 | 1010.4 |
| 20260506111934 | 13 | 334 | 11.3 | 24.1 | 0.00 | 0.00 | 0.00 | 74 | 1010.5 |
| 20260506111833 | 13 | 306 | 11.3 | 24.1 | 0.00 | 0.00 | 0.00 | 75 | 1010.4 |
| 20260506111733 | 13 | 314 | 14.5 | 24.1 | 0.00 | 0.00 | 0.00 | 75 | 1010.4 |
| 20260506111633 | 13 | 345 | 14.5 | 24.1 | 0.00 | 0.00 | 0.00 | 75 | 1010.5 |
| 20260506111533 | 13 | 330 | 11.3 | 24.1 | 0.00 | 0.00 | 0.00 | 75 | 1010.5 |
| 20260506111432 | 13 | 345 | 9.7 | 24.1 | 0.00 | 0.00 | 0.00 | 76 | 1010.4 |
| 20260506111333 | 13 | 312 | 12.9 | 24.1 | 0.00 | 0.00 | 0.00 | 75 | 1010.4 |
| 20260506111234 | 13 | 321 | 14.5 | 24.1 | 0.00 | 0.00 | 0.00 | 75 | 1010.4 |
| 20260506111134 | 13 | 331 | 16.1 | 24.1 | 0.00 | 0.00 | 0.00 | 75 | 1010.5 |
| 20260506111036 | 13 | 355 | 16.1 | 22.5 | 0.00 | 0.00 | 0.00 | 75 | 1010.5 |
| 20260506110934 | 13 | 327 | 17.7 | 22.5 | 0.00 | 0.00 | 0.00 | 75 | 1010.5 |
| 20260506110834 | 13 | 354 | 14.5 | 22.5 | 0.00 | 0.00 | 0.00 | 75 | 1010.5 |
| 20260506110735 | 13 | 309 | 14.5 | 22.5 | 0.00 | 0.00 | 0.00 | 75 | 1010.4 |
| 20260506110633 | 13 | 338 | 14.5 | 22.5 | 0.00 | 0.00 | 0.00 | 75 | 1010.5 |
| 20260506110536 | 13 | 334 | 14.5 | 22.5 | 0.00 | 0.00 | 0.00 | 75 | 1010.4 |
| 20260506110434 | 13 | 327 | 14.5 | 22.5 | 0.00 | 0.00 | 0.00 | 76 | 1010.5 |
| 20260506110333 | 13 | 341 | 12.9 | 22.5 | 0.00 | 0.00 | 0.00 | 76 | 1010.5 |
| 20260506110234 | 13 | 351 | 9.7 | 22.5 | 0.00 | 0.00 | 0.00 | 76 | 1010.6 |
| 20260506110134 | 13 | 348 | 8.0 | 22.5 | 0.00 | 0.00 | 0.00 | 76 | 1010.5 |
| 20260506110033 | 13 | 323 | 12.9 | 22.5 | 0.00 | 0.00 | 0.00 | 75 | 1010.6 |
| 20260506105933 | 13 | 358 | 14.5 | 22.5 | 0.00 | 0.00 | 0.00 | 75 | 1010.5 |
| 20260506105833 | 13 | 338 | 11.3 | 20.9 | 0.00 | 0.00 | 0.00 | 76 | 1010.5 |
| 20260506105733 | 13 | 333 | 11.3 | 20.9 | 0.00 | 0.00 | 0.00 | 76 | 1010.6 |
| 20260506105633 | 13 | 355 | 11.3 | 20.9 | 0.00 | 0.00 | 0.00 | 77 | 1010.6 |
| 20260506105536 | 13 | 345 | 9.7 | 20.9 | 0.00 | 0.00 | 0.00 | 77 | 1010.6 |
| 20260506105434 | 13 | 323 | 12.9 | 20.9 | 0.00 | 0.00 | 0.00 | 76 | 1010.5 |
| 20260506105333 | 13 | 310 | 12.9 | 20.9 | 0.00 | 0.00 | 0.00 | 77 | 1010.5 |
| 20260506105234 | 13 | 317 | 12.9 | 20.9 | 0.00 | 0.00 | 0.00 | 77 | 1010.5 |
| 20260506105137 | 13 | 264 | 12.9 | 20.9 | 0.00 | 0.00 | 0.00 | 76 | 1010.5 |
| 20260506105034 | 13 | 323 | 12.9 | 19.3 | 0.00 | 0.00 | 0.00 | 76 | 1010.6 |
| 20260506104935 | 13 | 298 | 12.9 | 19.3 | 0.00 | 0.00 | 0.00 | 76 | 1010.6 |
| 20260506104833 | 13 | 326 | 11.3 | 19.3 | 0.00 | 0.00 | 0.00 | 76 | 1010.5 |
| 20260506104734 | 13 | 326 | 9.7 | 19.3 | 0.00 | 0.00 | 0.00 | 77 | 1010.5 |
| 20260506104632 | 13 | 330 | 12.9 | 25.7 | 0.00 | 0.00 | 0.00 | 76 | 1010.5 |
| 20260506104535 | 13 | 307 | 11.3 | 25.7 | 0.00 | 0.00 | 0.00 | 76 | 1010.5 |
| 20260506104433 | 13 | 324 | 9.7 | 25.7 | 0.00 | 0.00 | 0.00 | 76 | 1010.5 |
| 20260506104333 | 13 | 0 | 9.7 | 25.7 | 0.00 | 0.00 | 0.00 | 77 | 1010.5 |
| 20260506104233 | 13 | 319 | 11.3 | 25.7 | 0.00 | 0.00 | 0.00 | 76 | 1010.5 |
| 20260506104133 | 13 | 347 | 11.3 | 25.7 | 0.00 | 0.00 | 0.00 | 76 | 1010.5 |
| 20260506104033 | 13 | 344 | 12.9 | 25.7 | 0.00 | 0.00 | 0.00 | 77 | 1010.6 |
| 20260506103934 | 13 | 344 | 14.5 | 25.7 | 0.00 | 0.00 | 0.00 | 77 | 1010.6 |
| 20260506103833 | 13 | 312 | 16.1 | 25.7 | 0.00 | 0.00 | 0.00 | 76 | 1010.5 |
| 20260506103733 | 13 | 0 | 16.1 | 25.7 | 0.00 | 0.00 | 0.00 | 76 | 1010.6 |
| 20260506103636 | 13 | 348 | 12.9 | 25.7 | 0.00 | 0.00 | 0.00 | 76 | 1010.6 |
| 20260506103536 | 13 | 350 | 14.5 | 25.7 | 0.00 | 0.00 | 0.00 | 75 | 1010.5 |
| 20260506103435 | 13 | 7 | 14.5 | 25.7 | 0.00 | 0.00 | 0.00 | 77 | 1010.5 |
| 20260506103233 | 13 | 354 | 12.9 | 22.5 | 0.00 | 0.00 | 0.00 | 76 | 1010.5 |
| 20260506103133 | 13 | 333 | 11.3 | 22.5 | 0.00 | 0.00 | 0.00 | 76 | 1010.4 |
| 20260506103033 | 13 | 293 | 11.3 | 22.5 | 0.00 | 0.00 | 0.00 | 76 | 1010.5 |
| 20260506102936 | 13 | 21 | 12.9 | 22.5 | 0.00 | 0.00 | 0.00 | 76 | 1010.5 |
| 20260506102836 | 13 | 343 | 12.9 | 22.5 | 0.00 | 0.00 | 0.00 | 77 | 1010.4 |
| 20260506102733 | 13 | 323 | 11.3 | 22.5 | 0.00 | 0.00 | 0.00 | 76 | 1010.4 |
| 20260506102632 | 13 | 333 | 12.9 | 27.4 | 0.00 | 0.00 | 0.00 | 76 | 1010.4 |
| 20260506102534 | 13 | 282 | 14.5 | 27.4 | 0.00 | 0.00 | 0.00 | 76 | 1010.4 |
| 20260506102433 | 13 | 343 | 14.5 | 27.4 | 0.00 | 0.00 | 0.00 | 75 | 1010.4 |
| 20260506102333 | 13 | 330 | 12.9 | 27.4 | 0.00 | 0.00 | 0.00 | 75 | 1010.5 |
| 20260506102243 | 13 | 333 | 14.5 | 27.4 | 0.00 | 0.00 | 0.00 | 76 | 1010.4 |
| 20260506102134 | 13 | 281 | 14.5 | 27.4 | 0.00 | 0.00 | 0.00 | 75 | 1010.4 |
| 20260506102034 | 13 | 313 | 12.9 | 27.4 | 0.00 | 0.00 | 0.00 | 76 | 1010.4 |
| 20260506101935 | 13 | 357 | 12.9 | 27.4 | 0.00 | 0.00 | 0.00 | 75 | 1010.4 |
| 20260506101834 | 13 | 8 | 14.5 | 27.4 | 0.00 | 0.00 | 0.00 | 75 | 1010.4 |
| 20260506101733 | 13 | 330 | 14.5 | 27.4 | 0.00 | 0.00 | 0.00 | 75 | 1010.4 |
| 20260506101633 | 13 | 336 | 12.9 | 24.1 | 0.00 | 0.00 | 0.00 | 75 | 1010.5 |
| 20260506101534 | 13 | 316 | 12.9 | 24.1 | 0.00 | 0.00 | 0.00 | 75 | 1010.5 |
| 20260506101433 | 13 | 25 | 14.5 | 24.1 | 0.00 | 0.00 | 0.00 | 74 | 1010.4 |
| 20260506101333 | 13 | 343 | 14.5 | 22.5 | 0.00 | 0.00 | 0.00 | 74 | 1010.5 |
| 20260506101232 | 13 | 355 | 12.9 | 22.5 | 0.00 | 0.00 | 0.00 | 74 | 1010.4 |
| 20260506101133 | 13 | 334 | 11.3 | 22.5 | 0.00 | 0.00 | 0.00 | 75 | 1010.4 |
| 20260506101033 | 13 | 355 | 9.7 | 22.5 | 0.00 | 0.00 | 0.00 | 75 | 1010.4 |
| 20260506100934 | 13 | 312 | 12.9 | 22.5 | 0.00 | 0.00 | 0.00 | 75 | 1010.3 |
| 20260506100835 | 13 | 4 | 14.5 | 24.1 | 0.00 | 0.00 | 0.00 | 76 | 1010.3 |
| 20260506100734 | 13 | 336 | 14.5 | 24.1 | 0.00 | 0.00 | 0.00 | 76 | 1010.2 |
| 20260506100633 | 13 | 343 | 12.9 | 24.1 | 0.00 | 0.00 | 0.00 | 76 | 1010.3 |
| 20260506100432 | 13 | 344 | 9.7 | 24.1 | 0.00 | 0.00 | 0.00 | 76 | 1010.3 |
| 20260506100333 | 13 | 0 | 11.3 | 24.1 | 0.00 | 0.00 | 0.00 | 76 | 1010.3 |
| 20260506100233 | 13 | 340 | 11.3 | 24.1 | 0.00 | 0.00 | 0.00 | 77 | 1010.4 |
| 20260506100136 | 13 | 343 | 12.9 | 29.0 | 0.00 | 0.00 | 0.00 | 77 | 1010.3 |
| 20260506100034 | 13 | 324 | 12.9 | 29.0 | 0.00 | 0.00 | 0.00 | 77 | 1010.3 |
| 20260506095935 | 13 | 6 | 11.3 | 29.0 | 0.00 | 0.00 | 0.00 | 77 | 1010.4 |
| 20260506095832 | 13 | 319 | 12.9 | 29.0 | 0.00 | 0.00 | 0.00 | 77 | 1010.3 |
| 20260506095733 | 13 | 0 | 14.5 | 29.0 | 0.00 | 0.00 | 0.00 | 77 | 1010.3 |
| 20260506095633 | 12 | 0 | 14.5 | 29.0 | 0.00 | 0.00 | 0.00 | 77 | 1010.2 |
| 20260506095533 | 12 | 341 | 12.9 | 29.0 | 0.00 | 0.00 | 0.00 | 77 | 1010.3 |
| 20260506095432 | 12 | 341 | 16.1 | 29.0 | 0.00 | 0.00 | 0.00 | 76 | 1010.3 |
| 20260506095333 | 13 | 353 | 19.3 | 29.0 | 0.00 | 0.00 | 0.00 | 76 | 1010.3 |
| 20260506095234 | 13 | 331 | 20.9 | 29.0 | 0.00 | 0.00 | 0.00 | 76 | 1010.4 |
| 20260506095134 | 13 | 317 | 17.7 | 25.7 | 0.00 | 0.00 | 0.00 | 76 | 1010.4 |
| 20260506095032 | 13 | 357 | 16.1 | 24.1 | 0.00 | 0.00 | 0.00 | 76 | 1010.3 |
| 20260506094933 | 13 | 353 | 14.5 | 24.1 | 0.00 | 0.00 | 0.00 | 76 | 1010.4 |
| 20260506094833 | 13 | 350 | 16.1 | 24.1 | 0.00 | 0.00 | 0.00 | 76 | 1010.4 |
| 20260506094733 | 13 | 330 | 16.1 | 24.1 | 0.00 | 0.00 | 0.00 | 77 | 1010.3 |
| 20260506094632 | 13 | 330 | 12.9 | 22.5 | 0.00 | 0.00 | 0.00 | 78 | 1010.2 |
| 20260506094534 | 13 | 0 | 9.7 | 25.7 | 0.00 | 0.00 | 0.00 | 78 | 1010.4 |
| 20260506094432 | 13 | 10 | 9.7 | 25.7 | 0.00 | 0.00 | 0.00 | 78 | 1010.3 |
| 20260506094333 | 13 | 326 | 9.7 | 25.7 | 0.00 | 0.00 | 0.00 | 79 | 1010.4 |
| 20260506094233 | 13 | 348 | 11.3 | 25.7 | 0.00 | 0.00 | 0.00 | 78 | 1010.3 |
| 20260506094133 | 13 | 357 | 14.5 | 25.7 | 0.00 | 0.00 | 0.00 | 78 | 1010.3 |
| 20260506094034 | 13 | 288 | 14.5 | 25.7 | 0.00 | 0.00 | 0.00 | 78 | 1010.3 |
| 20260506093934 | 12 | 326 | 14.5 | 25.7 | 0.00 | 0.00 | 0.00 | 79 | 1010.3 |
| 20260506093835 | 12 | 334 | 14.5 | 25.7 | 0.00 | 0.00 | 0.00 | 78 | 1010.3 |
| 20260506093735 | 12 | 337 | 16.1 | 25.7 | 0.00 | 0.00 | 0.00 | 78 | 1010.4 |
| 20260506093633 | 12 | 340 | 19.3 | 25.7 | 0.00 | 0.00 | 0.00 | 78 | 1010.4 |
| 20260506093533 | 12 | 330 | 16.1 | 25.7 | 0.00 | 0.00 | 0.00 | 79 | 1010.4 |
| 20260506093433 | 12 | 0 | 17.7 | 29.0 | 0.00 | 0.00 | 0.00 | 79 | 1010.4 |
| 20260506093333 | 12 | 0 | 17.7 | 29.0 | 0.00 | 0.00 | 0.00 | 79 | 1010.4 |
| 20260506093234 | 12 | 344 | 14.5 | 29.0 | 0.00 | 0.00 | 0.00 | 79 | 1010.3 |
| 20260506093133 | 12 | 323 | 17.7 | 29.0 | 0.00 | 0.00 | 0.00 | 79 | 1010.4 |
| 20260506093034 | 12 | 348 | 17.7 | 29.0 | 0.00 | 0.00 | 0.00 | 79 | 1010.4 |
| 20260506092932 | 12 | 323 | 17.7 | 29.0 | 0.00 | 0.00 | 0.00 | 79 | 1010.4 |
| 20260506092833 | 12 | 336 | 17.7 | 29.0 | 0.00 | 0.00 | 0.00 | 78 | 1010.4 |
| 20260506092734 | 12 | 343 | 16.1 | 29.0 | 0.00 | 0.00 | 0.00 | 78 | 1010.4 |
| 20260506092633 | 12 | 333 | 17.7 | 29.0 | 0.00 | 0.00 | 0.00 | 78 | 1010.3 |
| 20260506092534 | 12 | 324 | 19.3 | 29.0 | 0.00 | 0.00 | 0.00 | 80 | 1010.4 |
| 20260506092434 | 12 | 326 | 16.1 | 22.5 | 0.00 | 0.00 | 0.00 | 81 | 1010.4 |
| 20260506092333 | 12 | 347 | 11.3 | 27.4 | 0.00 | 0.00 | 0.00 | 80 | 1010.4 |
| 20260506092233 | 12 | 334 | 9.7 | 27.4 | 0.00 | 0.00 | 0.00 | 81 | 1010.4 |
| 20260506092133 | 12 | 0 | 11.3 | 27.4 | 0.00 | 0.00 | 0.00 | 81 | 1010.4 |
| 20260506092033 | 12 | 338 | 11.3 | 27.4 | 0.00 | 0.00 | 0.00 | 81 | 1010.4 |
| 20260506091936 | 12 | 345 | 11.3 | 27.4 | 0.00 | 0.00 | 0.00 | 81 | 1010.4 |
| 20260506091835 | 12 | 348 | 14.5 | 27.4 | 0.00 | 0.00 | 0.00 | 80 | 1010.3 |
| 20260506091735 | 12 | 338 | 16.1 | 27.4 | 0.00 | 0.00 | 0.00 | 80 | 1010.3 |
| 20260506091634 | 12 | 338 | 16.1 | 27.4 | 0.00 | 0.00 | 0.00 | 81 | 1010.4 |
| 20260506091600 | 12 | 0 | 16.1 | 27.4 | 0.00 | 0.00 | 0.00 | 80 | 1010.4 |
| 20260506091444 | 12 | 354 | 14.5 | 27.4 | 0.00 | 0.00 | 0.00 | 81 | 1010.4 |
| 20260506091333 | 12 | 347 | 12.9 | 22.5 | 0.00 | 0.00 | 0.00 | 81 | 1010.3 |
| 20260506091233 | 12 | 330 | 12.9 | 22.5 | 0.00 | 0.00 | 0.00 | 81 | 1010.3 |
| 20260506091134 | 12 | 37 | 11.3 | 22.5 | 0.00 | 0.00 | 0.00 | 81 | 1010.2 |
| 20260506091033 | 12 | 0 | 14.5 | 22.5 | 0.00 | 0.00 | 0.00 | 81 | 1010.3 |
| 20260506090933 | 12 | 341 | 14.5 | 22.5 | 0.00 | 0.00 | 0.00 | 82 | 1010.3 |
| 20260506090833 | 12 | 347 | 12.9 | 22.5 | 0.00 | 0.00 | 0.00 | 82 | 1010.3 |
| 20260506090733 | 12 | 324 | 14.5 | 22.5 | 0.00 | 0.00 | 0.00 | 81 | 1010.3 |
| 20260506090633 | 11 | 331 | 14.5 | 22.5 | 0.00 | 0.00 | 0.00 | 81 | 1010.2 |
| 20260506090533 | 12 | 337 | 16.1 | 22.5 | 0.00 | 0.00 | 0.00 | 81 | 1010.3 |
| 20260506090433 | 12 | 344 | 14.5 | 22.5 | 0.00 | 0.00 | 0.00 | 81 | 1010.3 |
| 20260506090333 | 12 | 348 | 14.5 | 22.5 | 0.00 | 0.00 | 0.00 | 81 | 1010.2 |
| 20260506090234 | 12 | 338 | 14.5 | 22.5 | 0.00 | 0.00 | 0.00 | 82 | 1010.3 |
| 20260506090134 | 12 | 354 | 11.3 | 22.5 | 0.00 | 0.00 | 0.00 | 81 | 1010.3 |
| 20260506090033 | 12 | 338 | 11.3 | 22.5 | 0.00 | 0.00 | 0.00 | 81 | 1010.3 |
| 20260506085933 | 12 | 355 | 14.5 | 22.5 | 0.00 | 0.00 | 0.00 | 81 | 1010.3 |
| 20260506085833 | 12 | 0 | 12.9 | 22.5 | 0.00 | 0.00 | 0.00 | 81 | 1010.3 |
| 20260506085735 | 12 | 312 | 11.3 | 19.3 | 0.00 | 0.00 | 0.00 | 81 | 1010.3 |
| 20260506085635 | 12 | 344 | 12.9 | 19.3 | 0.00 | 0.00 | 0.00 | 81 | 1010.3 |
| 20260506085534 | 12 | 341 | 14.5 | 19.3 | 0.00 | 0.00 | 0.00 | 81 | 1010.3 |
| 20260506085435 | 12 | 334 | 12.9 | 19.3 | 0.00 | 0.00 | 0.00 | 81 | 1010.2 |
| 20260506085333 | 12 | 347 | 11.3 | 20.9 | 0.00 | 0.00 | 0.00 | 81 | 1010.2 |
| 20260506085234 | 12 | 292 | 11.3 | 20.9 | 0.00 | 0.00 | 0.00 | 81 | 1010.2 |
| 20260506085133 | 12 | 331 | 11.3 | 20.9 | 0.00 | 0.00 | 0.00 | 82 | 1010.2 |
| 20260506085033 | 12 | 0 | 12.9 | 20.9 | 0.00 | 0.00 | 0.00 | 82 | 1010.2 |
| 20260506084935 | 12 | 0 | 12.9 | 20.9 | 0.00 | 0.00 | 0.00 | 82 | 1010.3 |
| 20260506084833 | 12 | 321 | 11.3 | 20.9 | 0.00 | 0.00 | 0.00 | 82 | 1010.3 |
| 20260506084733 | 12 | 350 | 9.7 | 20.9 | 0.00 | 0.00 | 0.00 | 82 | 1010.1 |
| 20260506084632 | 12 | 0 | 9.7 | 20.9 | 0.00 | 0.00 | 0.00 | 81 | 1010.2 |
| 20260506084533 | 12 | 340 | 14.5 | 20.9 | 0.00 | 0.00 | 0.00 | 81 | 1010.1 |
| 20260506084432 | 12 | 345 | 12.9 | 20.9 | 0.00 | 0.00 | 0.00 | 82 | 1010.1 |
| 20260506084333 | 12 | 321 | 9.7 | 22.5 | 0.00 | 0.00 | 0.00 | 83 | 1010.1 |
| 20260506084233 | 11 | 345 | 9.7 | 24.1 | 0.00 | 0.00 | 0.00 | 83 | 1010.1 |
| 20260506084133 | 11 | 348 | 9.7 | 24.1 | 0.00 | 0.00 | 0.00 | 83 | 1010.2 |
| 20260506084033 | 11 | 0 | 9.7 | 24.1 | 0.00 | 0.00 | 0.00 | 83 | 1010.1 |
| 20260506083933 | 11 | 351 | 11.3 | 24.1 | 0.00 | 0.00 | 0.00 | 83 | 1010.1 |
| 20260506083833 | 11 | 345 | 12.9 | 24.1 | 0.00 | 0.00 | 0.00 | 82 | 1010.1 |
| 20260506083734 | 11 | 0 | 14.5 | 24.1 | 0.00 | 0.00 | 0.00 | 82 | 1010.1 |
| 20260506083635 | 11 | 338 | 14.5 | 24.1 | 0.00 | 0.00 | 0.00 | 83 | 1010.1 |
| 20260506083535 | 11 | 350 | 14.5 | 24.1 | 0.00 | 0.00 | 0.00 | 83 | 1010.0 |
| 20260506083433 | 11 | 331 | 14.5 | 24.1 | 0.00 | 0.00 | 0.00 | 83 | 1010.1 |
| 20260506083333 | 11 | 343 | 12.9 | 24.1 | 0.00 | 0.00 | 0.00 | 83 | 1010.0 |
| 20260506083232 | 11 | 341 | 11.3 | 24.1 | 0.00 | 0.00 | 0.00 | 83 | 1010.1 |
| 20260506083134 | 11 | 0 | 11.3 | 24.1 | 0.00 | 0.00 | 0.00 | 83 | 1010.1 |
| 20260506083036 | 11 | 345 | 12.9 | 24.1 | 0.00 | 0.00 | 0.00 | 83 | 1010.1 |
| 20260506082934 | 11 | 343 | 12.9 | 24.1 | 0.00 | 0.00 | 0.00 | 83 | 1010.0 |
| 20260506082833 | 11 | 353 | 14.5 | 24.1 | 0.00 | 0.00 | 0.00 | 83 | 1010.0 |
| 20260506082732 | 11 | 331 | 16.1 | 24.1 | 0.00 | 0.00 | 0.00 | 83 | 1010.0 |
| 20260506082633 | 11 | 358 | 17.7 | 24.1 | 0.00 | 0.00 | 0.00 | 83 | 1010.1 |
| 20260506082533 | 11 | 341 | 16.1 | 24.1 | 0.00 | 0.00 | 0.00 | 83 | 1010.0 |
| 20260506082433 | 11 | 344 | 12.9 | 24.1 | 0.00 | 0.00 | 0.00 | 83 | 1010.0 |
| 20260506082332 | 11 | 320 | 12.9 | 24.1 | 0.00 | 0.00 | 0.00 | 83 | 1009.9 |
| 20260506082233 | 11 | 350 | 14.5 | 24.1 | 0.00 | 0.00 | 0.00 | 83 | 1010.0 |
| 20260506082134 | 11 | 0 | 16.1 | 24.1 | 0.00 | 0.00 | 0.00 | 83 | 1010.0 |
| 20260506082034 | 11 | 351 | 16.1 | 24.1 | 0.00 | 0.00 | 0.00 | 83 | 1010.0 |
| 20260506081933 | 11 | 321 | 14.5 | 24.1 | 0.00 | 0.00 | 0.00 | 83 | 1010.0 |
| 20260506081833 | 11 | 327 | 12.9 | 24.1 | 0.00 | 0.00 | 0.00 | 84 | 1010.0 |
| 20260506081733 | 11 | 334 | 12.9 | 24.1 | 0.00 | 0.00 | 0.00 | 84 | 1009.9 |
| 20260506081634 | 11 | 348 | 12.9 | 24.1 | 0.00 | 0.00 | 0.00 | 84 | 1010.0 |
| 20260506081537 | 11 | 309 | 9.7 | 22.5 | 0.00 | 0.00 | 0.00 | 84 | 1010.0 |
| 20260506081436 | 11 | 344 | 9.7 | 22.5 | 0.00 | 0.00 | 0.00 | 84 | 1010.0 |
| 20260506081335 | 11 | 338 | 8.0 | 22.5 | 0.00 | 0.00 | 0.00 | 84 | 1010.0 |
| 20260506081234 | 11 | 0 | 8.0 | 22.5 | 0.00 | 0.00 | 0.00 | 84 | 1010.0 |
| 20260506081133 | 11 | 324 | 9.7 | 22.5 | 0.00 | 0.00 | 0.00 | 84 | 1010.0 |
| 20260506081034 | 11 | 1 | 9.7 | 22.5 | 0.00 | 0.00 | 0.00 | 84 | 1010.0 |
| 20260506080933 | 11 | 0 | 11.3 | 22.5 | 0.00 | 0.00 | 0.00 | 84 | 1010.0 |
| 20260506080833 | 11 | 355 | 12.9 | 22.5 | 0.00 | 0.00 | 0.00 | 84 | 1010.0 |
| 20260506080733 | 11 | 334 | 12.9 | 22.5 | 0.00 | 0.00 | 0.00 | 85 | 1010.0 |
| 20260506080633 | 11 | 0 | 9.7 | 24.1 | 0.00 | 0.00 | 0.00 | 85 | 1010.0 |
| 20260506080534 | 11 | 347 | 9.7 | 24.1 | 0.00 | 0.00 | 0.00 | 85 | 1010.0 |
| 20260506080433 | 11 | 353 | 9.7 | 24.1 | 0.00 | 0.00 | 0.00 | 85 | 1010.0 |
| 20260506080333 | 11 | 337 | 11.3 | 24.1 | 0.00 | 0.00 | 0.00 | 84 | 1009.9 |
| 20260506080233 | 11 | 340 | 12.9 | 24.1 | 0.00 | 0.00 | 0.00 | 84 | 1010.0 |
| 20260506080133 | 11 | 358 | 12.9 | 24.1 | 0.00 | 0.00 | 0.00 | 84 | 1010.0 |
| 20260506073430 | 10 | 319 | 11.3 | 22.5 | 0.00 | 0.00 | 0.00 | 85 | 1009.9 |
| 20260506073329 | 10 | 343 | 14.5 | 22.5 | 0.00 | 0.00 | 0.00 | 85 | 1009.9 |
| 20260506073230 | 10 | 351 | 14.5 | 22.5 | 0.00 | 0.00 | 0.00 | 85 | 1009.9 |
| 20260506073129 | 10 | 331 | 14.5 | 20.9 | 0.00 | 0.00 | 0.00 | 85 | 1009.9 |
| 20260506073026 | 10 | 351 | 14.5 | 22.5 | 0.00 | 0.00 | 0.00 | 84 | 1009.9 |
| 20260506072925 | 10 | 336 | 16.1 | 22.5 | 0.00 | 0.00 | 0.00 | 84 | 1009.8 |
| 20260506072824 | 10 | 350 | 14.5 | 22.5 | 0.00 | 0.00 | 0.00 | 85 | 1009.8 |
| 20260506072723 | 10 | 0 | 12.9 | 22.5 | 0.00 | 0.00 | 0.00 | 84 | 1009.9 |
| 20260506072622 | 10 | 320 | 14.5 | 22.5 | 0.00 | 0.00 | 0.00 | 84 | 1009.8 |
| 20260506072522 | 10 | 324 | 14.5 | 22.5 | 0.00 | 0.00 | 0.00 | 84 | 1009.8 |
| 20260506072418 | 10 | 357 | 11.3 | 22.5 | 0.00 | 0.00 | 0.00 | 84 | 1009.9 |
| 20260506072318 | 10 | 338 | 12.9 | 22.5 | 0.00 | 0.00 | 0.00 | 84 | 1009.8 |
| 20260506072217 | 10 | 350 | 14.5 | 22.5 | 0.00 | 0.00 | 0.00 | 84 | 1009.8 |
| 20260506072118 | 10 | 327 | 14.5 | 22.5 | 0.00 | 0.00 | 0.00 | 84 | 1009.9 |
| 20260506072018 | 10 | 320 | 12.9 | 22.5 | 0.00 | 0.00 | 0.00 | 84 | 1009.9 |
| 20260506071917 | 10 | 7 | 12.9 | 22.5 | 0.00 | 0.00 | 0.00 | 84 | 1009.8 |
| 20260506071817 | 10 | 0 | 14.5 | 22.5 | 0.00 | 0.00 | 0.00 | 84 | 1009.9 |
| 20260506071716 | 10 | 341 | 14.5 | 22.5 | 0.00 | 0.00 | 0.00 | 84 | 1009.9 |
| 20260506071616 | 10 | 329 | 14.5 | 22.5 | 0.00 | 0.00 | 0.00 | 84 | 1009.8 |
| 20260506071514 | 10 | 321 | 14.5 | 22.5 | 0.00 | 0.00 | 0.00 | 84 | 1009.8 |
| 20260506071414 | 10 | 333 | 14.5 | 22.5 | 0.00 | 0.00 | 0.00 | 83 | 1009.8 |
| 20260506071315 | 10 | 327 | 12.9 | 22.5 | 0.00 | 0.00 | 0.00 | 83 | 1009.8 |
| 20260506071213 | 10 | 324 | 14.5 | 24.1 | 0.00 | 0.00 | 0.00 | 83 | 1009.8 |
| 20260506071114 | 10 | 348 | 14.5 | 24.1 | 0.00 | 0.00 | 0.00 | 83 | 1009.8 |
| 20260506071012 | 10 | 326 | 14.5 | 24.1 | 0.00 | 0.00 | 0.00 | 83 | 1009.8 |
| 20260506070913 | 10 | 334 | 12.9 | 24.1 | 0.00 | 0.00 | 0.00 | 83 | 1009.8 |
| 20260506070812 | 10 | 326 | 12.9 | 24.1 | 0.00 | 0.00 | 0.00 | 83 | 1009.8 |
| 20260506070714 | 10 | 309 | 12.9 | 24.1 | 0.00 | 0.00 | 0.00 | 83 | 1009.8 |
| 20260506070615 | 10 | 309 | 14.5 | 24.1 | 0.00 | 0.00 | 0.00 | 83 | 1009.7 |
| 20260506070514 | 10 | 337 | 14.5 | 24.1 | 0.00 | 0.00 | 0.00 | 83 | 1009.9 |
| 20260506070413 | 10 | 341 | 14.5 | 24.1 | 0.00 | 0.00 | 0.00 | 83 | 1009.8 |
| 20260506070311 | 10 | 355 | 14.5 | 24.1 | 0.00 | 0.00 | 0.00 | 83 | 1009.9 |
| 20260506070209 | 10 | 312 | 9.7 | 19.3 | 0.00 | 0.00 | 0.00 | 83 | 1009.8 |
| 20260506070108 | 10 | 350 | 11.3 | 19.3 | 0.00 | 0.00 | 0.00 | 83 | 1009.8 |
| 20260506062500 | 10 | 340 | 16.1 | 25.7 | 0.00 | 0.00 | 0.00 | 84 | 1009.7 |
| 20260506062355 | 10 | 351 | 14.5 | 25.7 | 0.00 | 0.00 | 0.00 | 84 | 1009.7 |
| 20260506062256 | 10 | 0 | 11.3 | 24.1 | 0.00 | 0.00 | 0.00 | 85 | 1009.6 |
| 20260506062154 | 10 | 353 | 11.3 | 19.3 | 0.00 | 0.00 | 0.00 | 85 | 1009.6 |
| 20260506062055 | 10 | 313 | 11.3 | 19.3 | 0.00 | 0.00 | 0.00 | 85 | 1009.6 |
| 20260506061954 | 10 | 337 | 12.9 | 19.3 | 0.00 | 0.00 | 0.00 | 85 | 1009.6 |
| 20260506061855 | 10 | 341 | 12.9 | 17.7 | 0.00 | 0.00 | 0.00 | 85 | 1009.6 |
| 20260506061754 | 10 | 337 | 11.3 | 20.9 | 0.00 | 0.00 | 0.00 | 85 | 1009.6 |
| 20260506061653 | 10 | 330 | 11.3 | 20.9 | 0.00 | 0.00 | 0.00 | 85 | 1009.6 |
| 20260506061550 | 10 | 336 | 9.7 | 22.5 | 0.00 | 0.00 | 0.00 | 85 | 1009.6 |
| 20260506061449 | 10 | 347 | 9.7 | 22.5 | 0.00 | 0.00 | 0.00 | 85 | 1009.6 |
| 20260506061350 | 10 | 344 | 9.7 | 22.5 | 0.00 | 0.00 | 0.00 | 84 | 1009.6 |
| 20260506061248 | 10 | 317 | 8.0 | 22.5 | 0.00 | 0.00 | 0.00 | 84 | 1009.6 |
| 20260506061148 | 10 | 337 | 9.7 | 22.5 | 0.00 | 0.00 | 0.00 | 84 | 1009.6 |
| 20260506061047 | 10 | 340 | 11.3 | 22.5 | 0.00 | 0.00 | 0.00 | 84 | 1009.6 |
| 20260506060947 | 10 | 344 | 12.9 | 22.5 | 0.00 | 0.00 | 0.00 | 84 | 1009.6 |
| 20260506060848 | 10 | 334 | 14.5 | 22.5 | 0.00 | 0.00 | 0.00 | 84 | 1009.6 |
| 20260506060744 | 10 | 330 | 16.1 | 22.5 | 0.00 | 0.00 | 0.00 | 84 | 1009.6 |
| 20260506060645 | 10 | 345 | 17.7 | 22.5 | 0.00 | 0.00 | 0.00 | 84 | 1009.6 |
| 20260506060544 | 10 | 337 | 16.1 | 22.5 | 0.00 | 0.00 | 0.00 | 84 | 1009.6 |
| 20260506060441 | 10 | 338 | 12.9 | 22.5 | 0.00 | 0.00 | 0.00 | 85 | 1009.5 |
| 20260506060340 | 10 | 343 | 11.3 | 22.5 | 0.00 | 0.00 | 0.00 | 85 | 1009.5 |
| 20260506060138 | 10 | 347 | 12.9 | 25.7 | 0.00 | 0.00 | 0.00 | 85 | 1009.6 |
| 20260506051319 | 10 | 351 | 11.3 | 24.1 | 0.00 | 0.00 | 0.00 | 85 | 1009.5 |
| 20260506051217 | 10 | 351 | 11.3 | 24.1 | 0.00 | 0.00 | 0.00 | 85 | 1009.5 |
| 20260506051116 | 10 | 344 | 9.7 | 24.1 | 0.00 | 0.00 | 0.00 | 85 | 1009.5 |
| 20260506051015 | 10 | 351 | 9.7 | 24.1 | 0.00 | 0.00 | 0.00 | 85 | 1009.5 |
| 20260506050915 | 10 | 326 | 9.7 | 24.1 | 0.00 | 0.00 | 0.00 | 85 | 1009.4 |
| 20260506050813 | 10 | 338 | 11.3 | 24.1 | 0.00 | 0.00 | 0.00 | 85 | 1009.5 |
| 20260506050715 | 10 | 357 | 14.5 | 24.1 | 0.00 | 0.00 | 0.00 | 85 | 1009.5 |
| 20260506050614 | 10 | 351 | 16.1 | 24.1 | 0.00 | 0.00 | 0.00 | 85 | 1009.6 |
| 20260506050514 | 10 | 334 | 12.9 | 22.5 | 0.00 | 0.00 | 0.00 | 85 | 1009.5 |
| 20260506050412 | 10 | 330 | 12.9 | 24.1 | 0.00 | 0.00 | 0.00 | 85 | 1009.4 |
| 20260506050313 | 10 | 357 | 14.5 | 24.1 | 0.00 | 0.00 | 0.00 | 85 | 1009.5 |
| 20260506050212 | 10 | 333 | 12.9 | 24.1 | 0.00 | 0.00 | 0.00 | 85 | 1009.5 |
| 20260506050111 | 10 | 0 | 12.9 | 24.1 | 0.00 | 0.00 | 0.00 | 85 | 1009.5 |
| 20260506045105 | 10 | 337 | 11.3 | 20.9 | 0.00 | 0.00 | 0.00 | 85 | 1009.4 |
| 20260506045003 | 10 | 323 | 9.7 | 19.3 | 0.00 | 0.00 | 0.00 | 85 | 1009.4 |
| 20260506044904 | 10 | 357 | 12.9 | 19.3 | 0.00 | 0.00 | 0.00 | 85 | 1009.4 |
| 20260506044803 | 10 | 338 | 12.9 | 20.9 | 0.00 | 0.00 | 0.00 | 85 | 1009.5 |
| 20260506044705 | 10 | 350 | 11.3 | 20.9 | 0.00 | 0.00 | 0.00 | 85 | 1009.5 |
| 20260506044605 | 10 | 357 | 9.7 | 20.9 | 0.00 | 0.00 | 0.00 | 85 | 1009.5 |
| 20260506044504 | 10 | 331 | 9.7 | 20.9 | 0.00 | 0.00 | 0.00 | 85 | 1009.5 |
| 20260506044402 | 10 | 316 | 9.7 | 20.9 | 0.00 | 0.00 | 0.00 | 85 | 1009.5 |
| 20260506044301 | 10 | 330 | 11.3 | 20.9 | 0.00 | 0.00 | 0.00 | 85 | 1009.5 |
| 20260506044204 | 10 | 353 | 9.7 | 20.9 | 0.00 | 0.00 | 0.00 | 85 | 1009.5 |
| 20260506044104 | 10 | 350 | 9.7 | 20.9 | 0.00 | 0.00 | 0.00 | 85 | 1009.6 |
| 20260506044001 | 10 | 351 | 12.9 | 20.9 | 0.00 | 0.00 | 0.00 | 85 | 1009.5 |
| 20260506043901 | 10 | 0 | 12.9 | 20.9 | 0.00 | 0.00 | 0.00 | 85 | 1009.6 |
| 20260506043801 | 10 | 345 | 9.7 | 20.9 | 0.00 | 0.00 | 0.00 | 85 | 1009.5 |
| 20260506043702 | 10 | 348 | 9.7 | 20.9 | 0.00 | 0.00 | 0.00 | 85 | 1009.6 |
| 20260506043601 | 10 | 7 | 9.7 | 22.5 | 0.00 | 0.00 | 0.00 | 85 | 1009.6 |
| 20260506043501 | 10 | 319 | 11.3 | 22.5 | 0.00 | 0.00 | 0.00 | 85 | 1009.7 |
| 20260506043401 | 10 | 327 | 9.7 | 22.5 | 0.00 | 0.00 | 0.00 | 84 | 1009.6 |
| 20260506043302 | 10 | 320 | 9.7 | 22.5 | 0.00 | 0.00 | 0.00 | 84 | 1009.6 |
| 20260506043201 | 10 | 340 | 14.5 | 22.5 | 0.00 | 0.00 | 0.00 | 84 | 1009.6 |
| 20260506043101 | 10 | 330 | 12.9 | 22.5 | 0.00 | 0.00 | 0.00 | 84 | 1009.6 |
| 20260506043002 | 10 | 341 | 11.3 | 22.5 | 0.00 | 0.00 | 0.00 | 84 | 1009.6 |
| 20260506042901 | 10 | 348 | 14.5 | 22.5 | 0.00 | 0.00 | 0.00 | 84 | 1009.6 |
| 20260506042801 | 10 | 320 | 14.5 | 22.5 | 0.00 | 0.00 | 0.00 | 84 | 1009.6 |
| 20260506042701 | 10 | 344 | 12.9 | 22.5 | 0.00 | 0.00 | 0.00 | 84 | 1009.5 |
| 20260506042603 | 10 | 331 | 11.3 | 25.7 | 0.00 | 0.00 | 0.00 | 84 | 1009.5 |
| 20260506042503 | 10 | 320 | 12.9 | 25.7 | 0.00 | 0.00 | 0.00 | 84 | 1009.5 |
| 20260506042403 | 10 | 331 | 14.5 | 25.7 | 0.00 | 0.00 | 0.00 | 84 | 1009.6 |
| 20260506042304 | 10 | 310 | 12.9 | 25.7 | 0.00 | 0.00 | 0.00 | 84 | 1009.5 |
| 20260506042202 | 10 | 0 | 11.3 | 25.7 | 0.00 | 0.00 | 0.00 | 84 | 1009.5 |
| 20260506042101 | 10 | 344 | 11.3 | 25.7 | 0.00 | 0.00 | 0.00 | 84 | 1009.5 |
| 20260506042001 | 10 | 337 | 12.9 | 25.7 | 0.00 | 0.00 | 0.00 | 84 | 1009.4 |
| 20260506041905 | 10 | 351 | 12.9 | 25.7 | 0.00 | 0.00 | 0.00 | 84 | 1009.5 |
| 20260506041801 | 10 | 336 | 14.5 | 25.7 | 0.00 | 0.00 | 0.00 | 84 | 1009.4 |
| 20260506041658 | 10 | 327 | 14.5 | 25.7 | 0.00 | 0.00 | 0.00 | 84 | 1009.5 |
| 20260506041556 | 10 | 321 | 14.5 | 24.1 | 0.00 | 0.00 | 0.00 | 84 | 1009.5 |
| 20260506041454 | 10 | 0 | 12.9 | 24.1 | 0.00 | 0.00 | 0.00 | 84 | 1009.5 |
| 20260506041354 | 10 | 348 | 9.7 | 24.1 | 0.00 | 0.00 | 0.00 | 84 | 1009.5 |
| 20260506041254 | 10 | 0 | 11.3 | 24.1 | 0.00 | 0.00 | 0.00 | 84 | 1009.6 |
| 20260506041153 | 10 | 355 | 14.5 | 24.1 | 0.00 | 0.00 | 0.00 | 85 | 1009.6 |
| 20260506041052 | 10 | 344 | 14.5 | 24.1 | 0.00 | 0.00 | 0.00 | 85 | 1009.5 |
| 20260506040952 | 10 | 348 | 12.9 | 22.5 | 0.00 | 0.00 | 0.00 | 85 | 1009.7 |
| 20260506040852 | 10 | 334 | 14.5 | 22.5 | 0.00 | 0.00 | 0.00 | 85 | 1009.5 |
| 20260506040752 | 10 | 343 | 14.5 | 22.5 | 0.00 | 0.00 | 0.00 | 85 | 1009.6 |
| 20260506040651 | 10 | 303 | 14.5 | 22.5 | 0.00 | 0.00 | 0.00 | 85 | 1009.6 |
| 20260506040551 | 10 | 338 | 12.9 | 22.5 | 0.00 | 0.00 | 0.00 | 85 | 1009.6 |
| 20260506040448 | 10 | 320 | 16.1 | 22.5 | 0.00 | 0.00 | 0.00 | 85 | 1009.6 |
| 20260506040347 | 10 | 345 | 17.7 | 22.5 | 0.00 | 0.00 | 0.00 | 85 | 1009.6 |
| 20260506040247 | 10 | 341 | 14.5 | 22.5 | 0.00 | 0.00 | 0.00 | 85 | 1009.7 |
| 20260506040147 | 10 | 293 | 12.9 | 22.5 | 0.00 | 0.00 | 0.00 | 85 | 1009.7 |
| 20260506040044 | 10 | 341 | 12.9 | 22.5 | 0.00 | 0.00 | 0.00 | 85 | 1009.6 |
| 20260506035943 | 10 | 324 | 12.9 | 22.5 | 0.00 | 0.00 | 0.00 | 85 | 1009.6 |
| 20260506035844 | 10 | 343 | 11.3 | 22.5 | 0.00 | 0.00 | 0.00 | 85 | 1009.7 |
| 20260506035745 | 10 | 350 | 12.9 | 22.5 | 0.00 | 0.00 | 0.00 | 85 | 1009.7 |
| 20260506035644 | 10 | 334 | 14.5 | 22.5 | 0.00 | 0.00 | 0.00 | 85 | 1009.6 |
| 20260506035541 | 10 | 329 | 12.9 | 22.5 | 0.00 | 0.00 | 0.00 | 85 | 1009.7 |
| 20260506035445 | 10 | 326 | 11.3 | 22.5 | 0.00 | 0.00 | 0.00 | 85 | 1009.7 |
| 20260506035342 | 10 | 309 | 9.7 | 20.9 | 0.00 | 0.00 | 0.00 | 85 | 1009.7 |
| 20260506035241 | 10 | 345 | 9.7 | 20.9 | 0.00 | 0.00 | 0.00 | 85 | 1009.7 |
| 20260506035141 | 10 | 336 | 11.3 | 20.9 | 0.00 | 0.00 | 0.00 | 85 | 1009.7 |
| 20260506035040 | 10 | 343 | 14.5 | 20.9 | 0.00 | 0.00 | 0.00 | 85 | 1009.6 |
| 20260506034939 | 10 | 353 | 14.5 | 20.9 | 0.00 | 0.00 | 0.00 | 85 | 1009.7 |
| 20260506034847 | 10 | 0 | 12.9 | 20.9 | 0.00 | 0.00 | 0.00 | 85 | 1009.6 |
| 20260506034735 | 10 | 336 | 14.5 | 20.9 | 0.00 | 0.00 | 0.00 | 85 | 1009.7 |
| 20260506034636 | 10 | 351 | 14.5 | 20.9 | 0.00 | 0.00 | 0.00 | 85 | 1009.6 |
| 20260506034535 | 10 | 343 | 12.9 | 20.9 | 0.00 | 0.00 | 0.00 | 85 | 1009.7 |
| 20260506034437 | 10 | 333 | 8.0 | 16.1 | 0.00 | 0.00 | 0.00 | 85 | 1009.6 |
| 20260506034335 | 10 | 341 | 6.4 | 16.1 | 0.00 | 0.00 | 0.00 | 85 | 1009.7 |
| 20260506034235 | 10 | 303 | 6.4 | 16.1 | 0.00 | 0.00 | 0.00 | 85 | 1009.6 |
| 20260506034134 | 10 | 317 | 8.0 | 16.1 | 0.00 | 0.00 | 0.00 | 85 | 1009.7 |
| 20260506034034 | 10 | 313 | 9.7 | 16.1 | 0.00 | 0.00 | 0.00 | 85 | 1009.7 |
| 20260506033933 | 10 | 326 | 9.7 | 16.1 | 0.00 | 0.00 | 0.00 | 85 | 1009.7 |
| 20260506033833 | 10 | 333 | 9.7 | 17.7 | 0.00 | 0.00 | 0.00 | 85 | 1009.6 |
| 20260506033735 | 10 | 320 | 9.7 | 22.5 | 0.00 | 0.00 | 0.00 | 85 | 1009.6 |
| 20260506033634 | 10 | 321 | 8.0 | 22.5 | 0.00 | 0.00 | 0.00 | 85 | 1009.6 |
| 20260506033534 | 10 | 313 | 8.0 | 22.5 | 0.00 | 0.00 | 0.00 | 85 | 1009.7 |
| 20260506033434 | 10 | 307 | 8.0 | 22.5 | 0.00 | 0.00 | 0.00 | 85 | 1009.7 |
| 20260506033332 | 10 | 295 | 8.0 | 22.5 | 0.00 | 0.00 | 0.00 | 85 | 1009.8 |
| 20260506033233 | 10 | 337 | 9.7 | 22.5 | 0.00 | 0.00 | 0.00 | 85 | 1009.7 |
| 20260506033132 | 10 | 337 | 9.7 | 22.5 | 0.00 | 0.00 | 0.00 | 85 | 1009.7 |
| 20260506033033 | 10 | 338 | 11.3 | 25.7 | 0.00 | 0.00 | 0.00 | 85 | 1009.7 |
| 20260506032932 | 10 | 281 | 12.9 | 25.7 | 0.00 | 0.00 | 0.00 | 85 | 1009.8 |
| 20260506032832 | 10 | 314 | 11.3 | 25.7 | 0.00 | 0.00 | 0.00 | 85 | 1009.8 |
| 20260506032731 | 10 | 338 | 9.7 | 25.7 | 0.00 | 0.00 | 0.00 | 84 | 1009.8 |
| 20260506032631 | 10 | 337 | 9.7 | 25.7 | 0.00 | 0.00 | 0.00 | 84 | 1009.8 |
| 20260506032531 | 10 | 324 | 11.3 | 25.7 | 0.00 | 0.00 | 0.00 | 84 | 1009.8 |
| 20260506032431 | 10 | 336 | 14.5 | 25.7 | 0.00 | 0.00 | 0.00 | 84 | 1009.8 |
| 20260506032329 | 10 | 343 | 11.3 | 25.7 | 0.00 | 0.00 | 0.00 | 84 | 1009.8 |
| 20260506032230 | 10 | 341 | 12.9 | 25.7 | 0.00 | 0.00 | 0.00 | 84 | 1009.8 |
| 20260506032129 | 10 | 348 | 16.1 | 25.7 | 0.00 | 0.00 | 0.00 | 84 | 1009.8 |
| 20260506032030 | 10 | 324 | 12.9 | 22.5 | 0.00 | 0.00 | 0.00 | 84 | 1009.8 |
| 20260506031931 | 10 | 348 | 11.3 | 20.9 | 0.00 | 0.00 | 0.00 | 83 | 1009.8 |
| 20260506031832 | 10 | 330 | 9.7 | 20.9 | 0.00 | 0.00 | 0.00 | 83 | 1009.8 |
| 20260506031730 | 10 | 350 | 9.7 | 20.9 | 0.00 | 0.00 | 0.00 | 83 | 1009.8 |
| 20260506031628 | 10 | 320 | 12.9 | 24.1 | 0.00 | 0.00 | 0.00 | 83 | 1009.9 |
| 20260506031526 | 10 | 331 | 12.9 | 24.1 | 0.00 | 0.00 | 0.00 | 83 | 1009.8 |
| 20260506031430 | 10 | 355 | 12.9 | 24.1 | 0.00 | 0.00 | 0.00 | 83 | 1009.8 |
| 20260506031327 | 10 | 354 | 12.9 | 24.1 | 0.00 | 0.00 | 0.00 | 83 | 1009.8 |
| 20260506031225 | 10 | 0 | 11.3 | 24.1 | 0.00 | 0.00 | 0.00 | 83 | 1009.8 |
| 20260506031125 | 10 | 326 | 12.9 | 24.1 | 0.00 | 0.00 | 0.00 | 83 | 1009.8 |
| 20260506031024 | 10 | 351 | 11.3 | 24.1 | 0.00 | 0.00 | 0.00 | 83 | 1009.9 |
| 20260506030922 | 10 | 0 | 11.3 | 24.1 | 0.00 | 0.00 | 0.00 | 82 | 1009.9 |
| 20260506030821 | 10 | 0 | 14.5 | 24.1 | 0.00 | 0.00 | 0.00 | 82 | 1009.8 |
| 20260506030721 | 10 | 0 | 16.1 | 22.5 | 0.00 | 0.00 | 0.00 | 82 | 1009.8 |
| 20260506030623 | 10 | 323 | 14.5 | 22.5 | 0.00 | 0.00 | 0.00 | 82 | 1009.9 |
| 20260506030521 | 10 | 0 | 14.5 | 22.5 | 0.00 | 0.00 | 0.00 | 82 | 1009.9 |
| 20260506030421 | 10 | 323 | 11.3 | 22.5 | 0.00 | 0.00 | 0.00 | 82 | 1010.0 |
| 20260506030320 | 10 | 347 | 11.3 | 22.5 | 0.00 | 0.00 | 0.00 | 82 | 1009.8 |
| 20260506030219 | 10 | 340 | 14.5 | 22.5 | 0.00 | 0.00 | 0.00 | 82 | 1009.8 |
| 20260506030119 | 10 | 331 | 14.5 | 22.5 | 0.00 | 0.00 | 0.00 | 82 | 1009.9 |
| 20260506030019 | 10 | 341 | 12.9 | 22.5 | 0.00 | 0.00 | 0.00 | 82 | 1009.8 |
| 20260506025918 | 10 | 324 | 11.3 | 22.5 | 0.00 | 0.00 | 0.00 | 82 | 1009.9 |
| 20260506025819 | 10 | 0 | 12.9 | 22.5 | 0.00 | 0.00 | 0.00 | 82 | 1010.0 |
| 20260506025717 | 10 | 344 | 11.3 | 22.5 | 0.00 | 0.00 | 0.00 | 82 | 1009.9 |
| 20260506025617 | 10 | 333 | 9.7 | 20.9 | 0.00 | 0.00 | 0.00 | 82 | 1009.9 |
| 20260506025517 | 10 | 351 | 9.7 | 20.9 | 0.00 | 0.00 | 0.00 | 82 | 1010.0 |
| 20260506025413 | 10 | 337 | 11.3 | 20.9 | 0.00 | 0.00 | 0.00 | 82 | 1010.0 |
| 20260506025313 | 10 | 343 | 9.7 | 20.9 | 0.00 | 0.00 | 0.00 | 81 | 1009.9 |
| 20260506025213 | 10 | 343 | 9.7 | 17.7 | 0.00 | 0.00 | 0.00 | 81 | 1010.0 |
| 20260506025113 | 10 | 338 | 11.3 | 17.7 | 0.00 | 0.00 | 0.00 | 81 | 1010.0 |
| 20260506025012 | 10 | 343 | 9.7 | 22.5 | 0.00 | 0.00 | 0.00 | 81 | 1010.0 |
| 20260506024912 | 10 | 336 | 11.3 | 22.5 | 0.00 | 0.00 | 0.00 | 81 | 1010.0 |
| 20260506024811 | 10 | 354 | 11.3 | 22.5 | 0.00 | 0.00 | 0.00 | 81 | 1010.0 |
| 20260506024714 | 10 | 357 | 9.7 | 22.5 | 0.00 | 0.00 | 0.00 | 81 | 1010.0 |
| 20260506024613 | 10 | 347 | 9.7 | 22.5 | 0.00 | 0.00 | 0.00 | 81 | 1010.0 |
| 20260506024508 | 10 | 353 | 11.3 | 22.5 | 0.00 | 0.00 | 0.00 | 81 | 1010.0 |
| 20260506024405 | 10 | 341 | 11.3 | 24.1 | 0.00 | 0.00 | 0.00 | 81 | 1010.1 |
| 20260506024304 | 10 | 354 | 11.3 | 24.1 | 0.00 | 0.00 | 0.00 | 80 | 1010.1 |
| 20260506024207 | 10 | 354 | 14.5 | 24.1 | 0.00 | 0.00 | 0.00 | 80 | 1010.0 |
| 20260506024106 | 10 | 337 | 14.5 | 24.1 | 0.00 | 0.00 | 0.00 | 80 | 1010.0 |
| 20260506024004 | 10 | 321 | 14.5 | 24.1 | 0.00 | 0.00 | 0.00 | 80 | 1010.1 |
| 20260506023904 | 10 | 338 | 14.5 | 24.1 | 0.00 | 0.00 | 0.00 | 80 | 1010.0 |
| 20260506023804 | 10 | 292 | 9.7 | 24.1 | 0.00 | 0.00 | 0.00 | 80 | 1010.1 |
| 20260506023704 | 10 | 357 | 9.7 | 24.1 | 0.00 | 0.00 | 0.00 | 80 | 1010.1 |
| 20260506023604 | 10 | 348 | 11.3 | 24.1 | 0.00 | 0.00 | 0.00 | 80 | 1010.1 |
| 20260506023503 | 10 | 0 | 12.9 | 24.1 | 0.00 | 0.00 | 0.00 | 80 | 1010.1 |
| 20260506023402 | 10 | 0 | 14.5 | 24.1 | 0.00 | 0.00 | 0.00 | 80 | 1010.0 |
| 20260506023302 | 10 | 330 | 16.1 | 24.1 | 0.00 | 0.00 | 0.00 | 80 | 1010.1 |
| 20260506023202 | 10 | 333 | 14.5 | 24.1 | 0.00 | 0.00 | 0.00 | 80 | 1010.1 |
| 20260506023101 | 10 | 340 | 14.5 | 22.5 | 0.00 | 0.00 | 0.00 | 80 | 1010.0 |
| 20260506023002 | 10 | 0 | 14.5 | 22.5 | 0.00 | 0.00 | 0.00 | 80 | 1010.1 |
| 20260506022901 | 10 | 358 | 14.5 | 22.5 | 0.00 | 0.00 | 0.00 | 80 | 1010.0 |
| 20260506022801 | 10 | 340 | 11.3 | 20.9 | 0.00 | 0.00 | 0.00 | 80 | 1010.1 |
| 20260506022701 | 10 | 350 | 11.3 | 20.9 | 0.00 | 0.00 | 0.00 | 80 | 1010.0 |
| 20260506022601 | 10 | 347 | 12.9 | 20.9 | 0.00 | 0.00 | 0.00 | 80 | 1010.1 |
| 20260506022501 | 10 | 355 | 12.9 | 20.9 | 0.00 | 0.00 | 0.00 | 80 | 1010.0 |
| 20260506022402 | 10 | 350 | 11.3 | 20.9 | 0.00 | 0.00 | 0.00 | 80 | 1010.0 |
| 20260506022305 | 10 | 327 | 11.3 | 20.9 | 0.00 | 0.00 | 0.00 | 80 | 1010.1 |
| 20260506022201 | 10 | 343 | 11.3 | 20.9 | 0.00 | 0.00 | 0.00 | 80 | 1010.1 |
| 20260506022101 | 10 | 0 | 11.3 | 20.9 | 0.00 | 0.00 | 0.00 | 80 | 1010.1 |
| 20260506022001 | 10 | 341 | 12.9 | 20.9 | 0.00 | 0.00 | 0.00 | 80 | 1010.1 |
| 20260506021902 | 10 | 337 | 12.9 | 20.9 | 0.00 | 0.00 | 0.00 | 80 | 1010.1 |
| 20260506021803 | 10 | 321 | 11.3 | 25.7 | 0.00 | 0.00 | 0.00 | 80 | 1010.1 |
| 20260506021704 | 10 | 343 | 12.9 | 25.7 | 0.00 | 0.00 | 0.00 | 80 | 1010.1 |
| 20260506021603 | 10 | 309 | 12.9 | 25.7 | 0.00 | 0.00 | 0.00 | 80 | 1010.1 |
| 20260506021502 | 10 | 3 | 12.9 | 25.7 | 0.00 | 0.00 | 0.00 | 80 | 1010.1 |
| 20260506021402 | 10 | 0 | 12.9 | 25.7 | 0.00 | 0.00 | 0.00 | 80 | 1010.1 |
| 20260506021301 | 10 | 0 | 11.3 | 25.7 | 0.00 | 0.00 | 0.00 | 80 | 1010.1 |
| 20260506021200 | 10 | 24 | 12.9 | 25.7 | 0.00 | 0.00 | 0.00 | 80 | 1010.1 |
| 20260506021102 | 10 | 347 | 12.9 | 25.7 | 0.00 | 0.00 | 0.00 | 80 | 1010.1 |
| 20260506021001 | 10 | 330 | 12.9 | 25.7 | 0.00 | 0.00 | 0.00 | 80 | 1010.1 |
| 20260506020901 | 10 | 0 | 12.9 | 25.7 | 0.00 | 0.00 | 0.00 | 80 | 1010.1 |
| 20260506020801 | 10 | 334 | 11.3 | 22.5 | 0.00 | 0.00 | 0.00 | 80 | 1010.2 |
| 20260506020702 | 10 | 324 | 11.3 | 22.5 | 0.00 | 0.00 | 0.00 | 80 | 1010.2 |
| 20260506020601 | 10 | 0 | 11.3 | 22.5 | 0.00 | 0.00 | 0.00 | 80 | 1010.1 |
| 20260506020501 | 10 | 336 | 12.9 | 22.5 | 0.00 | 0.00 | 0.00 | 80 | 1010.1 |
| 20260506020359 | 10 | 350 | 12.9 | 20.9 | 0.00 | 0.00 | 0.00 | 80 | 1010.2 |
| 20260506020258 | 10 | 333 | 12.9 | 20.9 | 0.00 | 0.00 | 0.00 | 80 | 1010.2 |
| 20260506020157 | 10 | 319 | 11.3 | 20.9 | 0.00 | 0.00 | 0.00 | 80 | 1010.2 |
| 20260506020057 | 10 | 321 | 9.7 | 20.9 | 0.00 | 0.00 | 0.00 | 80 | 1010.2 |
| 20260506015951 | 10 | 345 | 11.3 | 20.9 | 0.00 | 0.00 | 0.00 | 81 | 1010.1 |
| 20260506015851 | 10 | 343 | 11.3 | 20.9 | 0.00 | 0.00 | 0.00 | 81 | 1010.2 |
| 20260506015750 | 10 | 326 | 9.7 | 20.9 | 0.00 | 0.00 | 0.00 | 81 | 1010.1 |
| 20260506015649 | 10 | 337 | 9.7 | 20.9 | 0.00 | 0.00 | 0.00 | 81 | 1010.1 |
| 20260506015546 | 10 | 340 | 11.3 | 20.9 | 0.00 | 0.00 | 0.00 | 81 | 1010.2 |
| 20260506015445 | 10 | 341 | 12.9 | 20.9 | 0.00 | 0.00 | 0.00 | 81 | 1010.2 |
| 20260506015342 | 10 | 3 | 11.3 | 20.9 | 0.00 | 0.00 | 0.00 | 81 | 1010.2 |
| 20260506015241 | 10 | 353 | 11.3 | 19.3 | 0.00 | 0.00 | 0.00 | 81 | 1010.2 |
| 20260506015141 | 10 | 336 | 11.3 | 19.3 | 0.00 | 0.00 | 0.00 | 81 | 1010.3 |
| 20260506015040 | 10 | 353 | 11.3 | 19.3 | 0.00 | 0.00 | 0.00 | 81 | 1010.3 |
| 20260506014937 | 10 | 0 | 11.3 | 20.9 | 0.00 | 0.00 | 0.00 | 81 | 1010.2 |
| 20260506014837 | 10 | 0 | 12.9 | 20.9 | 0.00 | 0.00 | 0.00 | 81 | 1010.2 |
| 20260506014737 | 10 | 336 | 9.7 | 20.9 | 0.00 | 0.00 | 0.00 | 81 | 1010.2 |
| 20260506014639 | 10 | 347 | 8.0 | 20.9 | 0.00 | 0.00 | 0.00 | 81 | 1010.2 |
| 20260506014537 | 10 | 0 | 9.7 | 20.9 | 0.00 | 0.00 | 0.00 | 81 | 1010.2 |
| 20260506014434 | 10 | 0 | 8.0 | 20.9 | 0.00 | 0.00 | 0.00 | 81 | 1010.2 |
| 20260506014335 | 10 | 313 | 9.7 | 20.9 | 0.00 | 0.00 | 0.00 | 81 | 1010.2 |
| 20260506014234 | 10 | 341 | 11.3 | 20.9 | 0.00 | 0.00 | 0.00 | 81 | 1010.2 |
| 20260506014134 | 10 | 348 | 12.9 | 20.9 | 0.00 | 0.00 | 0.00 | 81 | 1010.2 |
| 20260506014033 | 10 | 354 | 12.9 | 20.9 | 0.00 | 0.00 | 0.00 | 81 | 1010.2 |
| 20260506013933 | 10 | 338 | 12.9 | 17.7 | 0.00 | 0.00 | 0.00 | 81 | 1010.2 |
| 20260506013833 | 10 | 338 | 12.9 | 17.7 | 0.00 | 0.00 | 0.00 | 81 | 1010.3 |
| 20260506013729 | 10 | 333 | 11.3 | 17.7 | 0.00 | 0.00 | 0.00 | 81 | 1010.3 |
| 20260506013630 | 10 | 347 | 9.7 | 17.7 | 0.00 | 0.00 | 0.00 | 81 | 1010.2 |
| 20260506013528 | 10 | 327 | 9.7 | 17.7 | 0.00 | 0.00 | 0.00 | 81 | 1010.2 |
| 20260506013430 | 10 | 343 | 9.7 | 17.7 | 0.00 | 0.00 | 0.00 | 81 | 1010.2 |
| 20260506013330 | 10 | 354 | 9.7 | 17.7 | 0.00 | 0.00 | 0.00 | 81 | 1010.2 |
| 20260506013229 | 10 | 326 | 11.3 | 17.7 | 0.00 | 0.00 | 0.00 | 81 | 1010.2 |
| 20260506013129 | 10 | 336 | 12.9 | 17.7 | 0.00 | 0.00 | 0.00 | 81 | 1010.3 |
| 20260506013029 | 10 | 344 | 11.3 | 17.7 | 0.00 | 0.00 | 0.00 | 81 | 1010.3 |
| 20260506012929 | 10 | 0 | 11.3 | 17.7 | 0.00 | 0.00 | 0.00 | 81 | 1010.3 |
| 20260506012829 | 10 | 337 | 9.7 | 17.7 | 0.00 | 0.00 | 0.00 | 81 | 1010.2 |
| 20260506012730 | 10 | 330 | 8.0 | 19.3 | 0.00 | 0.00 | 0.00 | 81 | 1010.2 |
| 20260506012630 | 10 | 0 | 9.7 | 19.3 | 0.00 | 0.00 | 0.00 | 81 | 1010.2 |
| 20260506012529 | 10 | 11 | 9.7 | 20.9 | 0.00 | 0.00 | 0.00 | 81 | 1010.2 |
| 20260506012429 | 10 | 326 | 9.7 | 20.9 | 0.00 | 0.00 | 0.00 | 81 | 1010.2 |
| 20260506012328 | 10 | 331 | 9.7 | 20.9 | 0.00 | 0.00 | 0.00 | 81 | 1010.2 |
| 20260506012230 | 10 | 336 | 11.3 | 20.9 | 0.00 | 0.00 | 0.00 | 80 | 1010.2 |
| 20260506012131 | 10 | 326 | 9.7 | 20.9 | 0.00 | 0.00 | 0.00 | 80 | 1010.3 |
| 20260506012033 | 10 | 344 | 8.0 | 20.9 | 0.00 | 0.00 | 0.00 | 80 | 1010.2 |
| 20260506011931 | 10 | 343 | 9.7 | 20.9 | 0.00 | 0.00 | 0.00 | 80 | 1010.3 |
| 20260506011830 | 10 | 358 | 11.3 | 20.9 | 0.00 | 0.00 | 0.00 | 80 | 1010.2 |
| 20260506011729 | 10 | 343 | 11.3 | 20.9 | 0.00 | 0.00 | 0.00 | 80 | 1010.2 |
| 20260506011630 | 10 | 0 | 11.3 | 20.9 | 0.00 | 0.00 | 0.00 | 80 | 1010.3 |
| 20260506011529 | 10 | 336 | 9.7 | 20.9 | 0.00 | 0.00 | 0.00 | 80 | 1010.3 |
| 20260506011429 | 10 | 357 | 8.0 | 19.3 | 0.00 | 0.00 | 0.00 | 80 | 1010.3 |
| 20260506011329 | 10 | 351 | 9.7 | 20.9 | 0.00 | 0.00 | 0.00 | 80 | 1010.2 |
| 20260506011228 | 10 | 341 | 11.3 | 20.9 | 0.00 | 0.00 | 0.00 | 79 | 1010.3 |
| 20260506011129 | 10 | 329 | 11.3 | 20.9 | 0.00 | 0.00 | 0.00 | 79 | 1010.3 |
| 20260506011028 | 10 | 0 | 11.3 | 20.9 | 0.00 | 0.00 | 0.00 | 80 | 1010.3 |
| 20260506010930 | 10 | 343 | 11.3 | 20.9 | 0.00 | 0.00 | 0.00 | 80 | 1010.2 |
| 20260506010829 | 10 | 0 | 9.7 | 20.9 | 0.00 | 0.00 | 0.00 | 80 | 1010.3 |
| 20260506010729 | 10 | 345 | 9.7 | 20.9 | 0.00 | 0.00 | 0.00 | 80 | 1010.3 |
| 20260506010630 | 10 | 0 | 11.3 | 20.9 | 0.00 | 0.00 | 0.00 | 80 | 1010.3 |
| 20260506010529 | 10 | 351 | 11.3 | 20.9 | 0.00 | 0.00 | 0.00 | 80 | 1010.3 |
| 20260506010429 | 10 | 344 | 11.3 | 20.9 | 0.00 | 0.00 | 0.00 | 80 | 1010.2 |
| 20260506010329 | 10 | 353 | 11.3 | 20.9 | 0.00 | 0.00 | 0.00 | 80 | 1010.3 |
| 20260506010231 | 10 | 334 | 12.9 | 20.9 | 0.00 | 0.00 | 0.00 | 81 | 1010.3 |
| 20260506010131 | 10 | 343 | 12.9 | 20.9 | 0.00 | 0.00 | 0.00 | 81 | 1010.2 |
| 20260506010030 | 10 | 0 | 11.3 | 20.9 | 0.00 | 0.00 | 0.00 | 81 | 1010.2 |
| 20260506005929 | 10 | 306 | 8.0 | 19.3 | 0.00 | 0.00 | 0.00 | 81 | 1010.3 |
| 20260506005828 | 10 | 351 | 9.7 | 19.3 | 0.00 | 0.00 | 0.00 | 81 | 1010.3 |
| 20260506005727 | 10 | 329 | 11.3 | 19.3 | 0.00 | 0.00 | 0.00 | 81 | 1010.2 |
| 20260506005627 | 10 | 0 | 11.3 | 19.3 | 0.00 | 0.00 | 0.00 | 81 | 1010.2 |
| 20260506005526 | 10 | 345 | 9.7 | 19.3 | 0.00 | 0.00 | 0.00 | 81 | 1010.3 |
| 20260506005426 | 10 | 353 | 12.9 | 19.3 | 0.00 | 0.00 | 0.00 | 81 | 1010.3 |
| 20260506005327 | 10 | 350 | 11.3 | 19.3 | 0.00 | 0.00 | 0.00 | 80 | 1010.3 |
| 20260506005224 | 10 | 357 | 8.0 | 19.3 | 0.00 | 0.00 | 0.00 | 80 | 1010.3 |
| 20260506005122 | 10 | 0 | 8.0 | 19.3 | 0.00 | 0.00 | 0.00 | 80 | 1010.3 |
| 20260506005022 | 10 | 0 | 8.0 | 19.3 | 0.00 | 0.00 | 0.00 | 80 | 1010.4 |
| 20260506004922 | 10 | 347 | 9.7 | 22.5 | 0.00 | 0.00 | 0.00 | 80 | 1010.3 |
| 20260506004819 | 10 | 353 | 9.7 | 22.5 | 0.00 | 0.00 | 0.00 | 80 | 1010.4 |
| 20260506004719 | 10 | 4 | 9.7 | 22.5 | 0.00 | 0.00 | 0.00 | 80 | 1010.4 |
| 20260506004618 | 10 | 305 | 11.3 | 22.5 | 0.00 | 0.00 | 0.00 | 80 | 1010.4 |
| 20260506004518 | 10 | 336 | 11.3 | 22.5 | 0.00 | 0.00 | 0.00 | 80 | 1010.4 |
| 20260506004417 | 10 | 329 | 9.7 | 22.5 | 0.00 | 0.00 | 0.00 | 80 | 1010.4 |
| 20260506004316 | 10 | 0 | 8.0 | 22.5 | 0.00 | 0.00 | 0.00 | 80 | 1010.4 |
| 20260506004214 | 10 | 323 | 8.0 | 22.5 | 0.00 | 0.00 | 0.00 | 80 | 1010.5 |
| 20260506004114 | 10 | 0 | 9.7 | 22.5 | 0.00 | 0.00 | 0.00 | 80 | 1010.4 |
| 20260506004014 | 10 | 0 | 11.3 | 22.5 | 0.00 | 0.00 | 0.00 | 80 | 1010.4 |
| 20260506003913 | 10 | 0 | 8.0 | 22.5 | 0.00 | 0.00 | 0.00 | 80 | 1010.4 |
| 20260506003814 | 10 | 0 | 9.7 | 22.5 | 0.00 | 0.00 | 0.00 | 80 | 1010.5 |
| 20260506003712 | 10 | 348 | 14.5 | 22.5 | 0.00 | 0.00 | 0.00 | 80 | 1010.5 |
| 20260506003612 | 10 | 0 | 14.5 | 22.5 | 0.00 | 0.00 | 0.00 | 80 | 1010.5 |
| 20260506003514 | 10 | 343 | 11.3 | 22.5 | 0.00 | 0.00 | 0.00 | 80 | 1010.4 |
| 20260506003413 | 10 | 28 | 11.3 | 22.5 | 0.00 | 0.00 | 0.00 | 80 | 1010.5 |
| 20260506003310 | 10 | 351 | 12.9 | 22.5 | 0.00 | 0.00 | 0.00 | 80 | 1010.4 |
| 20260506003211 | 10 | 353 | 14.5 | 22.5 | 0.00 | 0.00 | 0.00 | 80 | 1010.5 |
| 20260506003109 | 10 | 357 | 14.5 | 22.5 | 0.00 | 0.00 | 0.00 | 81 | 1010.5 |
| 20260506003008 | 10 | 351 | 14.5 | 22.5 | 0.00 | 0.00 | 0.00 | 81 | 1010.5 |
| 20260506002907 | 10 | 358 | 14.5 | 22.5 | 0.00 | 0.00 | 0.00 | 81 | 1010.5 |
| 20260506002806 | 10 | 0 | 14.5 | 22.5 | 0.00 | 0.00 | 0.00 | 81 | 1010.6 |
| 20260506002706 | 10 | 357 | 14.5 | 22.5 | 0.00 | 0.00 | 0.00 | 81 | 1010.7 |
| 20260506002603 | 10 | 338 | 11.3 | 22.5 | 0.00 | 0.00 | 0.00 | 81 | 1010.6 |
| 20260506002502 | 10 | 351 | 9.7 | 22.5 | 0.00 | 0.00 | 0.00 | 81 | 1010.6 |
| 20260506002402 | 10 | 6 | 9.7 | 22.5 | 0.00 | 0.00 | 0.00 | 81 | 1010.7 |
| 20260506002301 | 10 | 0 | 8.0 | 17.7 | 0.00 | 0.00 | 0.00 | 81 | 1010.6 |
| 20260506002201 | 10 | 348 | 8.0 | 17.7 | 0.00 | 0.00 | 0.00 | 81 | 1010.6 |
| 20260506002101 | 10 | 330 | 9.7 | 17.7 | 0.00 | 0.00 | 0.00 | 81 | 1010.7 |
| 20260506002002 | 10 | 319 | 9.7 | 19.3 | 0.00 | 0.00 | 0.00 | 81 | 1010.6 |
| 20260506001902 | 10 | 0 | 9.7 | 19.3 | 0.00 | 0.00 | 0.00 | 81 | 1010.6 |
| 20260506001802 | 10 | 312 | 9.7 | 19.3 | 0.00 | 0.00 | 0.00 | 81 | 1010.6 |
| 20260506001701 | 10 | 343 | 9.7 | 19.3 | 0.00 | 0.00 | 0.00 | 81 | 1010.6 |
| 20260506001601 | 10 | 345 | 11.3 | 19.3 | 0.00 | 0.00 | 0.00 | 81 | 1010.6 |
| 20260506001501 | 10 | 354 | 11.3 | 19.3 | 0.00 | 0.00 | 0.00 | 81 | 1010.7 |
| 20260506001401 | 10 | 0 | 11.3 | 19.3 | 0.00 | 0.00 | 0.00 | 81 | 1010.7 |
| 20260506001301 | 10 | 0 | 11.3 | 19.3 | 0.00 | 0.00 | 0.00 | 81 | 1010.7 |
| 20260506001201 | 10 | 321 | 12.9 | 19.3 | 0.00 | 0.00 | 0.00 | 81 | 1010.6 |
| 20260506001103 | 10 | 347 | 12.9 | 19.3 | 0.00 | 0.00 | 0.00 | 81 | 1010.7 |
| 20260506001001 | 10 | 326 | 12.9 | 19.3 | 0.00 | 0.00 | 0.00 | 81 | 1010.7 |
| 20260506000858 | 10 | 331 | 12.9 | 19.3 | 0.00 | 0.00 | 0.00 | 81 | 1010.7 |
| 20260506000757 | 10 | 347 | 11.3 | 19.3 | 0.00 | 0.00 | 0.00 | 81 | 1010.7 |
| 20260506000657 | 10 | 0 | 9.7 | 19.3 | 0.00 | 0.00 | 0.00 | 81 | 1010.7 |
| 20260506000556 | 10 | 353 | 11.3 | 19.3 | 0.00 | 0.00 | 0.00 | 81 | 1010.6 |
| 20260506000455 | 10 | 347 | 12.9 | 19.3 | 0.00 | 0.00 | 0.00 | 81 | 1010.8 |
| 20260506000355 | 10 | 354 | 9.7 | 19.3 | 0.00 | 0.00 | 0.00 | 81 | 1010.7 |
| 20260506000255 | 10 | 345 | 6.4 | 16.1 | 0.00 | 0.00 | 0.00 | 81 | 1010.8 |
| 20260506000152 | 10 | 337 | 6.4 | 16.1 | 0.00 | 0.00 | 0.00 | 81 | 1010.7 |
| 20260506000051 | 10 | 0 | 8.0 | 16.1 | 0.00 | 0.00 | 0.00 | 81 | 1010.7 |
| 20260505235949 | 10 | 0 | 9.7 | 16.1 | 0.00 | 0.00 | 0.00 | 81 | 1010.7 |
| 20260505235848 | 10 | 340 | 9.7 | 16.1 | 0.00 | 0.00 | 0.00 | 81 | 1010.8 |
| 20260505235747 | 10 | 0 | 9.7 | 16.1 | 0.00 | 0.00 | 0.00 | 81 | 1010.7 |
| 20260505235647 | 10 | 344 | 9.7 | 19.3 | 0.00 | 0.00 | 0.00 | 81 | 1010.8 |
| 20260505235546 | 10 | 0 | 9.7 | 19.3 | 0.00 | 0.00 | 0.00 | 80 | 1010.7 |
| 20260505235445 | 10 | 348 | 8.0 | 19.3 | 0.00 | 0.00 | 0.00 | 80 | 1010.8 |
| 20260505235343 | 10 | 357 | 8.0 | 19.3 | 0.00 | 0.00 | 0.00 | 80 | 1010.8 |
| 20260505235240 | 10 | 341 | 9.7 | 19.3 | 0.00 | 0.00 | 0.00 | 80 | 1010.8 |
| 20260505235140 | 10 | 0 | 9.7 | 19.3 | 0.00 | 0.00 | 0.00 | 80 | 1010.7 |
| 20260505235039 | 10 | 0 | 9.7 | 20.9 | 0.00 | 0.00 | 0.00 | 80 | 1010.8 |
| 20260505234940 | 10 | 350 | 9.7 | 20.9 | 0.00 | 0.00 | 0.00 | 80 | 1010.7 |
| 20260505234840 | 10 | 0 | 9.7 | 20.9 | 0.00 | 0.00 | 0.00 | 80 | 1010.8 |
| 20260505234736 | 10 | 358 | 9.7 | 20.9 | 0.00 | 0.00 | 0.00 | 80 | 1010.7 |
| 20260505234636 | 10 | 351 | 8.0 | 20.9 | 0.00 | 0.00 | 0.00 | 80 | 1010.7 |
| 20260505234536 | 10 | 333 | 11.3 | 20.9 | 0.00 | 0.00 | 0.00 | 80 | 1010.8 |
| 20260505234434 | 10 | 0 | 11.3 | 20.9 | 0.00 | 0.00 | 0.00 | 80 | 1010.7 |
| 20260505234334 | 10 | 355 | 12.9 | 20.9 | 0.00 | 0.00 | 0.00 | 80 | 1010.8 |
| 20260505234235 | 10 | 0 | 12.9 | 20.9 | 0.00 | 0.00 | 0.00 | 80 | 1010.7 |
| 20260505234133 | 10 | 0 | 11.3 | 20.9 | 0.00 | 0.00 | 0.00 | 80 | 1010.8 |
| 20260505234033 | 10 | 337 | 12.9 | 20.9 | 0.00 | 0.00 | 0.00 | 80 | 1010.8 |
| 20260505233932 | 10 | 0 | 9.7 | 20.9 | 0.00 | 0.00 | 0.00 | 80 | 1010.8 |
| 20260505233832 | 10 | 354 | 9.7 | 19.3 | 0.00 | 0.00 | 0.00 | 80 | 1010.8 |
| 20260505233732 | 10 | 0 | 12.9 | 19.3 | 0.00 | 0.00 | 0.00 | 80 | 1010.8 |
| 20260505233632 | 10 | 344 | 11.3 | 19.3 | 0.00 | 0.00 | 0.00 | 80 | 1010.8 |
| 20260505233532 | 10 | 8 | 11.3 | 19.3 | 0.00 | 0.00 | 0.00 | 80 | 1010.8 |
| 20260505233432 | 10 | 13 | 12.9 | 20.9 | 0.00 | 0.00 | 0.00 | 80 | 1010.8 |
| 20260505233332 | 10 | 25 | 11.3 | 20.9 | 0.00 | 0.00 | 0.00 | 80 | 1010.8 |
| 20260505233233 | 10 | 326 | 11.3 | 20.9 | 0.00 | 0.00 | 0.00 | 80 | 1010.7 |
| 20260505233133 | 10 | 343 | 11.3 | 20.9 | 0.00 | 0.00 | 0.00 | 80 | 1010.8 |
| 20260505233033 | 10 | 16 | 11.3 | 20.9 | 0.00 | 0.00 | 0.00 | 80 | 1010.8 |
| 20260505232934 | 10 | 354 | 12.9 | 20.9 | 0.00 | 0.00 | 0.00 | 80 | 1010.8 |
| 20260505232832 | 10 | 0 | 12.9 | 20.9 | 0.00 | 0.00 | 0.00 | 80 | 1010.8 |
| 20260505232732 | 10 | 0 | 14.5 | 20.9 | 0.00 | 0.00 | 0.00 | 80 | 1010.8 |
| 20260505232632 | 10 | 343 | 12.9 | 20.9 | 0.00 | 0.00 | 0.00 | 80 | 1010.9 |
| 20260505232533 | 10 | 0 | 11.3 | 20.9 | 0.00 | 0.00 | 0.00 | 80 | 1010.8 |
| 20260505232432 | 10 | 354 | 9.7 | 22.5 | 0.00 | 0.00 | 0.00 | 80 | 1010.9 |
| 20260505232333 | 10 | 358 | 11.3 | 22.5 | 0.00 | 0.00 | 0.00 | 80 | 1010.8 |
| 20260505232232 | 10 | 327 | 9.7 | 22.5 | 0.00 | 0.00 | 0.00 | 80 | 1010.8 |
| 20260505232132 | 10 | 0 | 8.0 | 25.7 | 0.00 | 0.00 | 0.00 | 80 | 1010.8 |
| 20260505232032 | 10 | 0 | 8.0 | 25.7 | 0.00 | 0.00 | 0.00 | 80 | 1010.8 |
| 20260505231932 | 10 | 0 | 11.3 | 25.7 | 0.00 | 0.00 | 0.00 | 79 | 1010.8 |
| 20260505231832 | 10 | 353 | 12.9 | 25.7 | 0.00 | 0.00 | 0.00 | 79 | 1010.8 |
| 20260505231734 | 10 | 340 | 14.5 | 25.7 | 0.00 | 0.00 | 0.00 | 79 | 1010.8 |
| 20260505231633 | 10 | 348 | 12.9 | 25.7 | 0.00 | 0.00 | 0.00 | 79 | 1010.9 |
| 20260505231532 | 10 | 320 | 11.3 | 25.7 | 0.00 | 0.00 | 0.00 | 79 | 1010.9 |
| 20260505231432 | 10 | 344 | 12.9 | 25.7 | 0.00 | 0.00 | 0.00 | 79 | 1010.9 |
| 20260505231332 | 10 | 341 | 14.5 | 27.4 | 0.00 | 0.00 | 0.00 | 79 | 1010.9 |
| 20260505231233 | 10 | 0 | 14.5 | 27.4 | 0.00 | 0.00 | 0.00 | 79 | 1010.9 |
| 20260505231134 | 10 | 3 | 12.9 | 27.4 | 0.00 | 0.00 | 0.00 | 79 | 1010.9 |
| 20260505231032 | 10 | 0 | 12.9 | 27.4 | 0.00 | 0.00 | 0.00 | 79 | 1010.9 |
| 20260505230931 | 10 | 334 | 12.9 | 27.4 | 0.00 | 0.00 | 0.00 | 79 | 1010.9 |
| 20260505230833 | 10 | 1 | 11.3 | 27.4 | 0.00 | 0.00 | 0.00 | 79 | 1010.9 |
| 20260505230732 | 10 | 354 | 14.5 | 27.4 | 0.00 | 0.00 | 0.00 | 79 | 1010.8 |
| 20260505230633 | 10 | 0 | 14.5 | 27.4 | 0.00 | 0.00 | 0.00 | 79 | 1010.9 |
| 20260505230533 | 10 | 348 | 14.5 | 27.4 | 0.00 | 0.00 | 0.00 | 79 | 1010.9 |
| 20260505230432 | 10 | 32 | 14.5 | 27.4 | 0.00 | 0.00 | 0.00 | 79 | 1011.0 |
| 20260505230332 | 10 | 357 | 14.5 | 24.1 | 0.00 | 0.00 | 0.00 | 79 | 1010.9 |
| 20260505230232 | 10 | 357 | 14.5 | 24.1 | 0.00 | 0.00 | 0.00 | 79 | 1011.0 |
| 20260505230133 | 10 | 358 | 12.9 | 22.5 | 0.00 | 0.00 | 0.00 | 79 | 1011.0 |
| 20260505230032 | 10 | 355 | 11.3 | 22.5 | 0.00 | 0.00 | 0.00 | 79 | 1010.9 |
| 20260505225933 | 10 | 330 | 9.7 | 22.5 | 0.00 | 0.00 | 0.00 | 79 | 1010.9 |
| 20260505225832 | 10 | 334 | 9.7 | 22.5 | 0.00 | 0.00 | 0.00 | 79 | 1010.9 |
| 20260505225733 | 10 | 0 | 11.3 | 22.5 | 0.00 | 0.00 | 0.00 | 79 | 1011.0 |
| 20260505225632 | 10 | 355 | 12.9 | 22.5 | 0.00 | 0.00 | 0.00 | 79 | 1011.0 |
| 20260505225534 | 10 | 0 | 12.9 | 20.9 | 0.00 | 0.00 | 0.00 | 79 | 1011.0 |
| 20260505225433 | 10 | 3 | 9.7 | 20.9 | 0.00 | 0.00 | 0.00 | 79 | 1011.0 |
| 20260505225334 | 10 | 345 | 11.3 | 20.9 | 0.00 | 0.00 | 0.00 | 79 | 1011.0 |
| 20260505225234 | 10 | 0 | 12.9 | 20.9 | 0.00 | 0.00 | 0.00 | 79 | 1011.0 |
| 20260505225134 | 10 | 344 | 12.9 | 20.9 | 0.00 | 0.00 | 0.00 | 79 | 1010.9 |
| 20260505225034 | 10 | 334 | 12.9 | 20.9 | 0.00 | 0.00 | 0.00 | 78 | 1011.0 |
| 20260505224933 | 10 | 353 | 11.3 | 20.9 | 0.00 | 0.00 | 0.00 | 78 | 1010.9 |
| 20260505224833 | 10 | 0 | 12.9 | 20.9 | 0.00 | 0.00 | 0.00 | 78 | 1011.0 |
| 20260505224732 | 10 | 320 | 14.5 | 20.9 | 0.00 | 0.00 | 0.00 | 78 | 1011.0 |
| 20260505224632 | 10 | 350 | 12.9 | 20.9 | 0.00 | 0.00 | 0.00 | 79 | 1011.0 |
| 20260505224532 | 10 | 350 | 12.9 | 20.9 | 0.00 | 0.00 | 0.00 | 79 | 1011.0 |
| 20260505224432 | 10 | 336 | 14.5 | 22.5 | 0.00 | 0.00 | 0.00 | 79 | 1011.0 |
| 20260505224333 | 10 | 334 | 14.5 | 22.5 | 0.00 | 0.00 | 0.00 | 79 | 1011.0 |
| 20260505224233 | 10 | 354 | 12.9 | 22.5 | 0.00 | 0.00 | 0.00 | 79 | 1011.0 |
| 20260505224132 | 10 | 337 | 12.9 | 22.5 | 0.00 | 0.00 | 0.00 | 79 | 1010.9 |
| 20260505224033 | 10 | 338 | 12.9 | 22.5 | 0.00 | 0.00 | 0.00 | 79 | 1010.9 |
| 20260505223931 | 10 | 0 | 14.5 | 22.5 | 0.00 | 0.00 | 0.00 | 79 | 1010.9 |
| 20260505223832 | 10 | 338 | 14.5 | 22.5 | 0.00 | 0.00 | 0.00 | 79 | 1011.0 |
| 20260505223732 | 10 | 329 | 12.9 | 22.5 | 0.00 | 0.00 | 0.00 | 79 | 1011.0 |
| 20260505223632 | 10 | 334 | 14.5 | 22.5 | 0.00 | 0.00 | 0.00 | 79 | 1011.0 |
| 20260505223532 | 10 | 340 | 12.9 | 22.5 | 0.00 | 0.00 | 0.00 | 79 | 1011.0 |
| 20260505223434 | 10 | 344 | 11.3 | 19.3 | 0.00 | 0.00 | 0.00 | 79 | 1011.0 |
| 20260505223335 | 10 | 0 | 9.7 | 19.3 | 0.00 | 0.00 | 0.00 | 80 | 1011.0 |
| 20260505223234 | 10 | 1 | 11.3 | 19.3 | 0.00 | 0.00 | 0.00 | 80 | 1011.1 |
| 20260505223135 | 10 | 4 | 12.9 | 19.3 | 0.00 | 0.00 | 0.00 | 80 | 1011.1 |
| 20260505223034 | 10 | 0 | 9.7 | 19.3 | 0.00 | 0.00 | 0.00 | 80 | 1011.1 |
| 20260505222932 | 10 | 0 | 9.7 | 19.3 | 0.00 | 0.00 | 0.00 | 80 | 1011.1 |
| 20260505222833 | 10 | 0 | 9.7 | 22.5 | 0.00 | 0.00 | 0.00 | 80 | 1011.1 |
| 20260505222732 | 10 | 0 | 9.7 | 22.5 | 0.00 | 0.00 | 0.00 | 80 | 1011.1 |
| 20260505222632 | 10 | 0 | 9.7 | 22.5 | 0.00 | 0.00 | 0.00 | 80 | 1011.1 |
| 20260505222532 | 10 | 353 | 8.0 | 22.5 | 0.00 | 0.00 | 0.00 | 80 | 1011.1 |
| 20260505222432 | 10 | 0 | 9.7 | 22.5 | 0.00 | 0.00 | 0.00 | 80 | 1011.0 |
| 20260505222332 | 10 | 24 | 9.7 | 22.5 | 0.00 | 0.00 | 0.00 | 79 | 1011.0 |
| 20260505222232 | 10 | 336 | 11.3 | 22.5 | 0.00 | 0.00 | 0.00 | 79 | 1011.1 |
| 20260505222132 | 10 | 357 | 9.7 | 22.5 | 0.00 | 0.00 | 0.00 | 79 | 1011.1 |
| 20260505222031 | 10 | 345 | 11.3 | 22.5 | 0.00 | 0.00 | 0.00 | 79 | 1011.1 |
| 20260505221932 | 10 | 39 | 12.9 | 22.5 | 0.00 | 0.00 | 0.00 | 79 | 1011.1 |
| 20260505221831 | 10 | 27 | 11.3 | 20.9 | 0.00 | 0.00 | 0.00 | 79 | 1011.1 |
| 20260505221732 | 10 | 4 | 11.3 | 20.9 | 0.00 | 0.00 | 0.00 | 79 | 1011.1 |
| 20260505221632 | 10 | 354 | 11.3 | 20.9 | 0.00 | 0.00 | 0.00 | 79 | 1011.0 |
| 20260505221532 | 10 | 347 | 11.3 | 20.9 | 0.00 | 0.00 | 0.00 | 79 | 1011.1 |
| 20260505221432 | 10 | 0 | 9.7 | 20.9 | 0.00 | 0.00 | 0.00 | 80 | 1011.1 |
| 20260505221333 | 10 | 0 | 9.7 | 20.9 | 0.00 | 0.00 | 0.00 | 80 | 1011.1 |
| 20260505221233 | 10 | 345 | 8.0 | 20.9 | 0.00 | 0.00 | 0.00 | 80 | 1011.1 |
| 20260505221134 | 10 | 18 | 8.0 | 20.9 | 0.00 | 0.00 | 0.00 | 80 | 1011.1 |
| 20260505221034 | 10 | 1 | 11.3 | 20.9 | 0.00 | 0.00 | 0.00 | 80 | 1011.1 |
| 20260505220935 | 10 | 6 | 12.9 | 20.9 | 0.00 | 0.00 | 0.00 | 80 | 1011.2 |
| 20260505220834 | 10 | 338 | 9.7 | 20.9 | 0.00 | 0.00 | 0.00 | 80 | 1011.2 |
| 20260505220734 | 10 | 6 | 9.7 | 20.9 | 0.00 | 0.00 | 0.00 | 80 | 1011.2 |
| 20260505220634 | 10 | 348 | 11.3 | 20.9 | 0.00 | 0.00 | 0.00 | 81 | 1011.1 |
| 20260505220532 | 10 | 358 | 12.9 | 20.9 | 0.00 | 0.00 | 0.00 | 81 | 1011.1 |
| 20260505220432 | 10 | 0 | 11.3 | 20.9 | 0.00 | 0.00 | 0.00 | 81 | 1011.1 |
| 20260505220332 | 10 | 353 | 8.0 | 19.3 | 0.00 | 0.00 | 0.00 | 82 | 1011.1 |
| 20260505220233 | 10 | 14 | 8.0 | 17.7 | 0.00 | 0.00 | 0.00 | 82 | 1011.1 |
| 20260505220132 | 10 | 23 | 8.0 | 17.7 | 0.00 | 0.00 | 0.00 | 82 | 1011.1 |
| 20260505220032 | 10 | 6 | 8.0 | 17.7 | 0.00 | 0.00 | 0.00 | 82 | 1011.1 |
| 20260505215932 | 10 | 336 | 9.7 | 17.7 | 0.00 | 0.00 | 0.00 | 82 | 1011.1 |
| 20260505215832 | 10 | 4 | 8.0 | 19.3 | 0.00 | 0.00 | 0.00 | 82 | 1011.1 |
| 20260505215732 | 10 | 0 | 8.0 | 19.3 | 0.00 | 0.00 | 0.00 | 82 | 1011.1 |
| 20260505215632 | 10 | 345 | 8.0 | 19.3 | 0.00 | 0.00 | 0.00 | 82 | 1011.1 |
| 20260505215531 | 10 | 337 | 9.7 | 20.9 | 0.00 | 0.00 | 0.00 | 82 | 1011.0 |
| 20260505215432 | 10 | 0 | 11.3 | 20.9 | 0.00 | 0.00 | 0.00 | 81 | 1011.1 |
| 20260505215335 | 10 | 327 | 9.7 | 20.9 | 0.00 | 0.00 | 0.00 | 81 | 1011.2 |
| 20260505215232 | 10 | 1 | 9.7 | 22.5 | 0.00 | 0.00 | 0.00 | 81 | 1011.1 |
| 20260505215133 | 10 | 8 | 9.7 | 22.5 | 0.00 | 0.00 | 0.00 | 81 | 1011.1 |
| 20260505215032 | 10 | 7 | 9.7 | 22.5 | 0.00 | 0.00 | 0.00 | 81 | 1011.0 |
| 20260505214932 | 10 | 323 | 12.9 | 24.1 | 0.00 | 0.00 | 0.00 | 81 | 1011.0 |
| 20260505214832 | 10 | 340 | 12.9 | 25.7 | 0.00 | 0.00 | 0.00 | 81 | 1011.0 |
| 20260505214732 | 10 | 331 | 12.9 | 25.7 | 0.00 | 0.00 | 0.00 | 81 | 1011.0 |
| 20260505214632 | 11 | 0 | 11.3 | 25.7 | 0.00 | 0.00 | 0.00 | 81 | 1011.1 |
| 20260505214531 | 11 | 16 | 11.3 | 25.7 | 0.00 | 0.00 | 0.00 | 81 | 1011.1 |
| 20260505214435 | 11 | 351 | 12.9 | 25.7 | 0.00 | 0.00 | 0.00 | 81 | 1011.1 |
| 20260505214333 | 11 | 334 | 12.9 | 25.7 | 0.00 | 0.00 | 0.00 | 81 | 1011.0 |
| 20260505214234 | 11 | 0 | 11.3 | 25.7 | 0.00 | 0.00 | 0.00 | 81 | 1011.1 |
| 20260505214133 | 11 | 343 | 12.9 | 25.7 | 0.00 | 0.00 | 0.00 | 81 | 1011.1 |
| 20260505214034 | 11 | 0 | 14.5 | 25.7 | 0.00 | 0.00 | 0.00 | 81 | 1011.1 |
| 20260505213932 | 11 | 350 | 14.5 | 25.7 | 0.00 | 0.00 | 0.00 | 81 | 1011.1 |
| 20260505213833 | 11 | 326 | 14.5 | 25.7 | 0.00 | 0.00 | 0.00 | 81 | 1011.1 |
| 20260505213733 | 11 | 334 | 14.5 | 25.7 | 0.00 | 0.00 | 0.00 | 81 | 1011.1 |
| 20260505213632 | 11 | 340 | 14.5 | 25.7 | 0.00 | 0.00 | 0.00 | 81 | 1011.1 |
| 20260505213532 | 11 | 334 | 14.5 | 25.7 | 0.00 | 0.00 | 0.00 | 81 | 1011.2 |
| 20260505213432 | 11 | 336 | 12.9 | 25.7 | 0.00 | 0.00 | 0.00 | 81 | 1011.1 |
| 20260505213332 | 11 | 334 | 14.5 | 25.7 | 0.00 | 0.00 | 0.00 | 81 | 1011.1 |
| 20260505213232 | 11 | 353 | 14.5 | 25.7 | 0.00 | 0.00 | 0.00 | 81 | 1011.2 |
| 20260505213132 | 11 | 14 | 12.9 | 20.9 | 0.00 | 0.00 | 0.00 | 81 | 1011.1 |
| 20260505213032 | 11 | 340 | 12.9 | 20.9 | 0.00 | 0.00 | 0.00 | 81 | 1011.2 |
| 20260505212932 | 11 | 334 | 12.9 | 20.9 | 0.00 | 0.00 | 0.00 | 81 | 1011.1 |
| 20260505212832 | 11 | 0 | 12.9 | 20.9 | 0.00 | 0.00 | 0.00 | 81 | 1011.2 |
| 20260505212731 | 11 | 357 | 12.9 | 22.5 | 0.00 | 0.00 | 0.00 | 81 | 1011.2 |
| 20260505212634 | 11 | 0 | 11.3 | 22.5 | 0.00 | 0.00 | 0.00 | 81 | 1011.1 |
| 20260505212534 | 11 | 314 | 11.3 | 22.5 | 0.00 | 0.00 | 0.00 | 81 | 1011.2 |
| 20260505212432 | 11 | 331 | 11.3 | 22.5 | 0.00 | 0.00 | 0.00 | 81 | 1011.2 |
| 20260505212332 | 11 | 330 | 11.3 | 22.5 | 0.00 | 0.00 | 0.00 | 80 | 1011.2 |
| 20260505212232 | 11 | 324 | 9.7 | 24.1 | 0.00 | 0.00 | 0.00 | 81 | 1011.2 |
| 20260505212132 | 11 | 302 | 11.3 | 24.1 | 0.00 | 0.00 | 0.00 | 81 | 1011.1 |
| 20260505212032 | 11 | 336 | 11.3 | 27.4 | 0.00 | 0.00 | 0.00 | 80 | 1011.2 |
| 20260505211932 | 11 | 323 | 14.5 | 27.4 | 0.00 | 0.00 | 0.00 | 81 | 1011.2 |
| 20260505211832 | 11 | 7 | 12.9 | 27.4 | 0.00 | 0.00 | 0.00 | 81 | 1011.1 |
| 20260505211731 | 11 | 345 | 12.9 | 27.4 | 0.00 | 0.00 | 0.00 | 81 | 1011.2 |
| 20260505211633 | 11 | 343 | 12.9 | 27.4 | 0.00 | 0.00 | 0.00 | 81 | 1011.0 |
| 20260505211531 | 11 | 327 | 12.9 | 27.4 | 0.00 | 0.00 | 0.00 | 81 | 1011.2 |
| 20260505211432 | 11 | 0 | 14.5 | 27.4 | 0.00 | 0.00 | 0.00 | 81 | 1011.1 |
| 20260505211332 | 11 | 0 | 14.5 | 27.4 | 0.00 | 0.00 | 0.00 | 81 | 1011.2 |
| 20260505211232 | 11 | 331 | 14.5 | 27.4 | 0.00 | 0.00 | 0.00 | 81 | 1011.1 |
| 20260505211131 | 11 | 350 | 16.1 | 27.4 | 0.00 | 0.00 | 0.00 | 81 | 1011.1 |
| 20260505211032 | 11 | 353 | 14.5 | 22.5 | 0.00 | 0.00 | 0.00 | 81 | 1011.2 |
| 20260505210930 | 11 | 0 | 12.9 | 22.5 | 0.00 | 0.00 | 0.00 | 81 | 1011.1 |
| 20260505210830 | 11 | 0 | 11.3 | 22.5 | 0.00 | 0.00 | 0.00 | 82 | 1011.2 |
| 20260505210730 | 11 | 340 | 9.7 | 22.5 | 0.00 | 0.00 | 0.00 | 82 | 1011.2 |
| 20260505210630 | 11 | 344 | 9.7 | 22.5 | 0.00 | 0.00 | 0.00 | 82 | 1011.2 |
| 20260505210529 | 11 | 0 | 11.3 | 22.5 | 0.00 | 0.00 | 0.00 | 81 | 1011.1 |
| 20260505210426 | 11 | 0 | 11.3 | 22.5 | 0.00 | 0.00 | 0.00 | 82 | 1011.2 |
| 20260505210326 | 11 | 0 | 12.9 | 22.5 | 0.00 | 0.00 | 0.00 | 82 | 1011.1 |
| 20260505210227 | 11 | 0 | 11.3 | 22.5 | 0.00 | 0.00 | 0.00 | 82 | 1011.1 |
| 20260505210128 | 11 | 344 | 11.3 | 22.5 | 0.00 | 0.00 | 0.00 | 82 | 1011.2 |
| 20260505210027 | 11 | 338 | 12.9 | 25.7 | 0.00 | 0.00 | 0.00 | 82 | 1011.2 |
| 20260505205925 | 11 | 10 | 12.9 | 25.7 | 0.00 | 0.00 | 0.00 | 82 | 1011.2 |
| 20260505205825 | 11 | 298 | 11.3 | 25.7 | 0.00 | 0.00 | 0.00 | 82 | 1011.2 |
| 20260505205722 | 11 | 0 | 12.9 | 25.7 | 0.00 | 0.00 | 0.00 | 82 | 1011.2 |
| 20260505205622 | 11 | 0 | 14.5 | 25.7 | 0.00 | 0.00 | 0.00 | 82 | 1011.2 |
| 20260505205519 | 11 | 0 | 11.3 | 25.7 | 0.00 | 0.00 | 0.00 | 82 | 1011.2 |
| 20260505205421 | 11 | 344 | 9.7 | 25.7 | 0.00 | 0.00 | 0.00 | 82 | 1011.2 |
| 20260505205320 | 11 | 347 | 11.3 | 25.7 | 0.00 | 0.00 | 0.00 | 82 | 1011.2 |
| 20260505205220 | 11 | 313 | 14.5 | 25.7 | 0.00 | 0.00 | 0.00 | 82 | 1011.1 |
| 20260505205119 | 11 | 326 | 14.5 | 25.7 | 0.00 | 0.00 | 0.00 | 82 | 1011.3 |
| 20260505205019 | 11 | 0 | 12.9 | 24.1 | 0.00 | 0.00 | 0.00 | 82 | 1011.1 |
| 20260505204918 | 11 | 31 | 12.9 | 25.7 | 0.00 | 0.00 | 0.00 | 82 | 1011.2 |
| 20260505204817 | 11 | 344 | 16.1 | 25.7 | 0.00 | 0.00 | 0.00 | 82 | 1011.3 |
| 20260505204715 | 11 | 300 | 14.5 | 25.7 | 0.00 | 0.00 | 0.00 | 82 | 1011.2 |
| 20260505204614 | 11 | 336 | 12.9 | 25.7 | 0.00 | 0.00 | 0.00 | 82 | 1011.2 |
| 20260505204515 | 11 | 334 | 11.3 | 27.4 | 0.00 | 0.00 | 0.00 | 82 | 1011.3 |
| 20260505204413 | 11 | 343 | 12.9 | 27.4 | 0.00 | 0.00 | 0.00 | 82 | 1011.3 |
| 20260505204314 | 11 | 6 | 12.9 | 27.4 | 0.00 | 0.00 | 0.00 | 82 | 1011.3 |
| 20260505204213 | 11 | 354 | 14.5 | 27.4 | 0.00 | 0.00 | 0.00 | 82 | 1011.2 |
| 20260505204112 | 11 | 7 | 16.1 | 27.4 | 0.00 | 0.00 | 0.00 | 82 | 1011.1 |
| 20260505204009 | 11 | 4 | 16.1 | 27.4 | 0.00 | 0.00 | 0.00 | 82 | 1011.2 |
| 20260505203910 | 11 | 330 | 12.9 | 27.4 | 0.00 | 0.00 | 0.00 | 82 | 1011.2 |
| 20260505203803 | 11 | 1 | 12.9 | 27.4 | 0.00 | 0.00 | 0.00 | 82 | 1011.2 |
| 20260505203702 | 11 | 355 | 16.1 | 27.4 | 0.00 | 0.00 | 0.00 | 82 | 1011.2 |
| 20260505203602 | 11 | 0 | 17.7 | 27.4 | 0.00 | 0.00 | 0.00 | 82 | 1011.2 |
| 20260505203500 | 11 | 343 | 16.1 | 27.4 | 0.00 | 0.00 | 0.00 | 82 | 1011.2 |
| 20260505203400 | 11 | 0 | 14.5 | 27.4 | 0.00 | 0.00 | 0.00 | 82 | 1011.2 |
| 20260505203300 | 11 | 355 | 14.5 | 27.4 | 0.00 | 0.00 | 0.00 | 82 | 1011.2 |
| 20260505203158 | 11 | 348 | 12.9 | 33.8 | 0.00 | 0.00 | 0.00 | 82 | 1011.2 |
| 20260505203059 | 11 | 30 | 16.1 | 33.8 | 0.00 | 0.00 | 0.00 | 82 | 1011.2 |
| 20260505202958 | 11 | 337 | 16.1 | 33.8 | 0.00 | 0.00 | 0.00 | 82 | 1011.2 |
| 20260505202900 | 11 | 0 | 16.1 | 33.8 | 0.00 | 0.00 | 0.00 | 82 | 1011.1 |
| 20260505202800 | 11 | 358 | 16.1 | 33.8 | 0.00 | 0.00 | 0.00 | 82 | 1011.2 |
| 20260505202653 | 11 | 0 | 16.1 | 33.8 | 0.00 | 0.00 | 0.00 | 82 | 1011.1 |
| 20260505202549 | 11 | 0 | 14.5 | 33.8 | 0.00 | 0.00 | 0.00 | 82 | 1011.1 |
| 20260505202448 | 11 | 347 | 16.1 | 33.8 | 0.00 | 0.00 | 0.00 | 82 | 1011.2 |
| 20260505202348 | 11 | 357 | 17.7 | 33.8 | 0.00 | 0.00 | 0.00 | 82 | 1011.2 |
| 20260505202245 | 11 | 343 | 14.5 | 33.8 | 0.00 | 0.00 | 0.00 | 82 | 1011.1 |
| 20260505202144 | 11 | 11 | 14.5 | 29.0 | 0.00 | 0.00 | 0.00 | 82 | 1011.1 |
| 20260505202045 | 11 | 341 | 16.1 | 29.0 | 0.00 | 0.00 | 0.00 | 82 | 1011.1 |
| 20260505201944 | 11 | 348 | 16.1 | 29.0 | 0.00 | 0.00 | 0.00 | 82 | 1011.0 |
| 20260505201846 | 11 | 330 | 16.1 | 29.0 | 0.00 | 0.00 | 0.00 | 82 | 1011.1 |
| 20260505201745 | 11 | 350 | 17.7 | 29.0 | 0.00 | 0.00 | 0.00 | 82 | 1011.0 |
| 20260505201639 | 11 | 0 | 17.7 | 29.0 | 0.00 | 0.00 | 0.00 | 82 | 1011.1 |
| 20260505201539 | 11 | 326 | 16.1 | 32.2 | 0.00 | 0.00 | 0.00 | 82 | 1011.1 |
| 20260505201434 | 11 | 32 | 17.7 | 32.2 | 0.00 | 0.00 | 0.00 | 82 | 1011.0 |
| 20260505201337 | 11 | 347 | 14.5 | 32.2 | 0.00 | 0.00 | 0.00 | 82 | 1011.1 |
| 20260505201232 | 11 | 357 | 12.9 | 32.2 | 0.00 | 0.00 | 0.00 | 82 | 1011.1 |
| 20260505201132 | 11 | 330 | 17.7 | 32.2 | 0.00 | 0.00 | 0.00 | 82 | 1011.2 |
| 20260505201032 | 11 | 0 | 17.7 | 32.2 | 0.00 | 0.00 | 0.00 | 82 | 1011.1 |
| 20260505200931 | 11 | 313 | 16.1 | 32.2 | 0.00 | 0.00 | 0.00 | 82 | 1011.1 |
| 20260505200832 | 11 | 6 | 16.1 | 32.2 | 0.00 | 0.00 | 0.00 | 82 | 1011.2 |
| 20260505200732 | 11 | 330 | 17.7 | 32.2 | 0.00 | 0.00 | 0.00 | 81 | 1011.2 |
| 20260505200632 | 11 | 357 | 17.7 | 32.2 | 0.00 | 0.00 | 0.00 | 81 | 1011.2 |
| 20260505200532 | 11 | 330 | 17.7 | 29.0 | 0.00 | 0.00 | 0.00 | 81 | 1011.1 |
| 20260505200432 | 11 | 347 | 17.7 | 29.0 | 0.00 | 0.00 | 0.00 | 82 | 1011.1 |
| 20260505200333 | 11 | 329 | 17.7 | 29.0 | 0.00 | 0.00 | 0.00 | 81 | 1011.1 |
| 20260505200232 | 11 | 330 | 17.7 | 27.4 | 0.00 | 0.00 | 0.00 | 82 | 1011.1 |
| 20260505200132 | 11 | 330 | 16.1 | 27.4 | 0.00 | 0.00 | 0.00 | 82 | 1011.2 |
| 20260505200034 | 11 | 3 | 14.5 | 27.4 | 0.00 | 0.00 | 0.00 | 81 | 1011.2 |
| 20260505195934 | 11 | 345 | 16.1 | 27.4 | 0.00 | 0.00 | 0.00 | 81 | 1011.1 |
| 20260505195834 | 11 | 0 | 14.5 | 27.4 | 0.00 | 0.00 | 0.00 | 81 | 1011.1 |
| 20260505195733 | 11 | 0 | 12.9 | 27.4 | 0.00 | 0.00 | 0.00 | 81 | 1011.1 |
| 20260505195633 | 11 | 357 | 14.5 | 29.0 | 0.00 | 0.00 | 0.00 | 81 | 1011.0 |
| 20260505195532 | 11 | 320 | 14.5 | 29.0 | 0.00 | 0.00 | 0.00 | 81 | 1011.0 |
| 20260505195433 | 11 | 327 | 16.1 | 29.0 | 0.00 | 0.00 | 0.00 | 81 | 1011.1 |
| 20260505195334 | 11 | 354 | 17.7 | 29.0 | 0.00 | 0.00 | 0.00 | 81 | 1011.1 |
| 20260505195233 | 11 | 350 | 17.7 | 29.0 | 0.00 | 0.00 | 0.00 | 81 | 1011.0 |
| 20260505195133 | 11 | 0 | 16.1 | 29.0 | 0.00 | 0.00 | 0.00 | 81 | 1011.0 |
| 20260505195032 | 11 | 330 | 14.5 | 29.0 | 0.00 | 0.00 | 0.00 | 81 | 1011.1 |
| 20260505194932 | 11 | 334 | 16.1 | 29.0 | 0.00 | 0.00 | 0.00 | 81 | 1011.1 |
| 20260505194832 | 11 | 336 | 16.1 | 29.0 | 0.00 | 0.00 | 0.00 | 81 | 1011.0 |
| 20260505194731 | 11 | 350 | 17.7 | 29.0 | 0.00 | 0.00 | 0.00 | 81 | 1011.0 |
| 20260505194632 | 11 | 334 | 19.3 | 27.4 | 0.00 | 0.00 | 0.00 | 81 | 1011.0 |
| 20260505194532 | 11 | 340 | 16.1 | 27.4 | 0.00 | 0.00 | 0.00 | 81 | 1011.0 |
| 20260505194431 | 11 | 340 | 14.5 | 27.4 | 0.00 | 0.00 | 0.00 | 81 | 1011.0 |
| 20260505194333 | 11 | 330 | 16.1 | 27.4 | 0.00 | 0.00 | 0.00 | 81 | 1011.0 |
| 20260505194232 | 11 | 344 | 17.7 | 27.4 | 0.00 | 0.00 | 0.00 | 81 | 1011.0 |
| 20260505194132 | 11 | 353 | 16.1 | 27.4 | 0.00 | 0.00 | 0.00 | 81 | 1010.9 |
| 20260505194033 | 11 | 3 | 17.7 | 32.2 | 0.00 | 0.00 | 0.00 | 81 | 1011.0 |
| 20260505193934 | 11 | 0 | 17.7 | 32.2 | 0.00 | 0.00 | 0.00 | 81 | 1011.0 |
| 20260505193833 | 11 | 338 | 16.1 | 32.2 | 0.00 | 0.00 | 0.00 | 81 | 1011.0 |
| 20260505193733 | 11 | 350 | 14.5 | 32.2 | 0.00 | 0.00 | 0.00 | 81 | 1011.0 |
| 20260505193632 | 11 | 353 | 14.5 | 32.2 | 0.00 | 0.00 | 0.00 | 80 | 1011.1 |
| 20260505193531 | 11 | 344 | 14.5 | 32.2 | 0.00 | 0.00 | 0.00 | 80 | 1011.0 |
| 20260505193433 | 11 | 343 | 12.9 | 32.2 | 0.00 | 0.00 | 0.00 | 80 | 1011.0 |
| 20260505193332 | 11 | 3 | 14.5 | 32.2 | 0.00 | 0.00 | 0.00 | 80 | 1011.0 |
| 20260505193232 | 11 | 358 | 17.7 | 32.2 | 0.00 | 0.00 | 0.00 | 80 | 1011.0 |
| 20260505193132 | 11 | 8 | 17.7 | 32.2 | 0.00 | 0.00 | 0.00 | 80 | 1011.0 |
| 20260505193032 | 11 | 341 | 17.7 | 32.2 | 0.00 | 0.00 | 0.00 | 80 | 1011.0 |
| 20260505192933 | 11 | 319 | 17.7 | 30.6 | 0.00 | 0.00 | 0.00 | 80 | 1010.9 |
| 20260505192831 | 11 | 337 | 17.7 | 30.6 | 0.00 | 0.00 | 0.00 | 80 | 1011.0 |
| 20260505192733 | 11 | 0 | 16.1 | 30.6 | 0.00 | 0.00 | 0.00 | 80 | 1010.9 |
| 20260505192632 | 11 | 355 | 14.5 | 30.6 | 0.00 | 0.00 | 0.00 | 80 | 1011.0 |
| 20260505192532 | 11 | 6 | 12.9 | 30.6 | 0.00 | 0.00 | 0.00 | 79 | 1010.9 |
| 20260505192431 | 11 | 334 | 12.9 | 30.6 | 0.00 | 0.00 | 0.00 | 79 | 1010.9 |
| 20260505192331 | 11 | 355 | 14.5 | 30.6 | 0.00 | 0.00 | 0.00 | 79 | 1010.8 |
| 20260505192233 | 11 | 337 | 17.7 | 30.6 | 0.00 | 0.00 | 0.00 | 79 | 1010.9 |
| 20260505192134 | 11 | 0 | 16.1 | 30.6 | 0.00 | 0.00 | 0.00 | 79 | 1010.9 |
| 20260505192032 | 11 | 0 | 16.1 | 30.6 | 0.00 | 0.00 | 0.00 | 80 | 1010.9 |
| 20260505191933 | 11 | 337 | 17.7 | 30.6 | 0.00 | 0.00 | 0.00 | 80 | 1010.9 |
| 20260505191833 | 11 | 331 | 17.7 | 30.6 | 0.00 | 0.00 | 0.00 | 80 | 1010.8 |
| 20260505191732 | 11 | 324 | 16.1 | 25.7 | 0.00 | 0.00 | 0.00 | 80 | 1011.0 |
| 20260505191632 | 11 | 354 | 16.1 | 25.7 | 0.00 | 0.00 | 0.00 | 80 | 1010.9 |
| 20260505191531 | 11 | 343 | 14.5 | 25.7 | 0.00 | 0.00 | 0.00 | 80 | 1010.8 |
| 20260505191431 | 11 | 333 | 11.3 | 25.7 | 0.00 | 0.00 | 0.00 | 80 | 1010.9 |
| 20260505191342 | 11 | 11 | 12.9 | 25.7 | 0.00 | 0.00 | 0.00 | 79 | 1010.9 |
| 20260505191233 | 11 | 350 | 16.1 | 25.7 | 0.00 | 0.00 | 0.00 | 79 | 1010.9 |
| 20260505191132 | 11 | 0 | 16.1 | 32.2 | 0.00 | 0.00 | 0.00 | 79 | 1010.8 |
| 20260505191032 | 11 | 0 | 17.7 | 32.2 | 0.00 | 0.00 | 0.00 | 79 | 1010.9 |
| 20260505190931 | 11 | 347 | 14.5 | 32.2 | 0.00 | 0.00 | 0.00 | 80 | 1010.7 |
| 20260505190832 | 11 | 348 | 14.5 | 32.2 | 0.00 | 0.00 | 0.00 | 80 | 1010.8 |
| 20260505190731 | 11 | 0 | 14.5 | 32.2 | 0.00 | 0.00 | 0.00 | 80 | 1010.8 |
| 20260505190632 | 11 | 358 | 14.5 | 32.2 | 0.00 | 0.00 | 0.00 | 80 | 1010.8 |
| 20260505190535 | 11 | 353 | 12.9 | 32.2 | 0.00 | 0.00 | 0.00 | 80 | 1010.8 |
| 20260505190435 | 11 | 330 | 12.9 | 32.2 | 0.00 | 0.00 | 0.00 | 80 | 1010.7 |
| 20260505190337 | 11 | 336 | 17.7 | 32.2 | 0.00 | 0.00 | 0.00 | 80 | 1010.7 |
| 20260505190234 | 11 | 313 | 19.3 | 32.2 | 0.00 | 0.00 | 0.00 | 80 | 1010.7 |
| 20260505190034 | 11 | 358 | 16.1 | 27.4 | 0.00 | 0.00 | 0.00 | 80 | 1010.7 |
| 20260505185934 | 11 | 331 | 14.5 | 29.0 | 0.00 | 0.00 | 0.00 | 80 | 1010.7 |
| 20260505185833 | 11 | 314 | 16.1 | 29.0 | 0.00 | 0.00 | 0.00 | 80 | 1010.6 |
| 20260505185732 | 11 | 338 | 16.1 | 29.0 | 0.00 | 0.00 | 0.00 | 80 | 1010.7 |
| 20260505185632 | 11 | 355 | 16.1 | 32.2 | 0.00 | 0.00 | 0.00 | 80 | 1010.7 |
| 20260505185532 | 11 | 355 | 17.7 | 32.2 | 0.00 | 0.00 | 0.00 | 80 | 1010.7 |
| 20260505185432 | 11 | 341 | 17.7 | 32.2 | 0.00 | 0.00 | 0.00 | 80 | 1010.7 |
| 20260505185331 | 11 | 329 | 14.5 | 32.2 | 0.00 | 0.00 | 0.00 | 80 | 1010.6 |
| 20260505185232 | 11 | 327 | 14.5 | 32.2 | 0.00 | 0.00 | 0.00 | 80 | 1010.7 |